Observation data for Lomax on 02/21/2019      Previous  Date  Next       Current Mesonet Observations  Soil Data  Daily Summary Page  Observations in Plain Language
KLO1 210600Z 15006KT 07/M05 A2987 RMK A01 T00651048  RH  044%=      5-min Rain = 0
KLO1 210601Z 15006KT 07/M05 A2987 RMK A01 T00681047  RH  044%=      5-min Rain = 0
KLO1 210602Z 16006KT 07/M05 A2987 RMK A01 T00691047  RH  044%=      5-min Rain = 0
KLO1 210603Z 16006KT 07/M05 A2987 RMK A01 T00701047  RH  043%=      5-min Rain = 0
KLO1 210604Z 16007KT 07/M05 A2987 RMK A01 T00721047  RH  043%=      5-min Rain = 0
KLO1 210605Z 16007KT 07/M05 A2987 RMK A01 T00731047  RH  042%=      5-min Rain = 0
KLO1 210606Z 16007KT 07/M05 A2987 RMK A01 T00741047  RH  042%=      5-min Rain = 0
KLO1 210607Z 16008KT 07/M05 A2987 RMK A01 T00741047  RH  042%=      5-min Rain = 0
KLO1 210608Z 16008KT 08/M05 A2987 RMK A01 T00751047  RH  042%=      5-min Rain = 0
KLO1 210609Z 16008KT 08/M05 A2987 RMK A01 T00751047  RH  042%=      5-min Rain = 0
KLO1 210610Z 16008KT 08/M05 A2987 RMK A01 T00761047  RH  042%=      5-min Rain = 0
KLO1 210611Z 16007KT 08/M05 A2987 RMK A01 T00761047  RH  041%=      5-min Rain = 0
KLO1 210612Z 16007KT 08/M05 A2987 RMK A01 T00771047  RH  041%=      5-min Rain = 0
KLO1 210613Z 16007KT 08/M05 A2987 RMK A01 T00771047  RH  041%=      5-min Rain = 0
KLO1 210614Z 16007KT 08/M05 A2987 RMK A01 T00771047  RH  041%=      5-min Rain = 0
KLO1 210615Z 16007KT 08/M05 A2987 RMK A01 T00781047  RH  041%=      5-min Rain = 0
KLO1 210616Z 16007KT 08/M05 A2987 RMK A01 T00781047  RH  041%=      5-min Rain = 0
KLO1 210617Z 16007KT 08/M05 A2987 RMK A01 T00781047  RH  041%=      5-min Rain = 0
KLO1 210618Z 16007KT 08/M05 A2987 RMK A01 T00781047  RH  041%=      5-min Rain = 0
KLO1 210619Z 16007KT 08/M05 A2987 RMK A01 T00781047  RH  041%=      5-min Rain = 0
KLO1 210620Z 16007KT 08/M05 A2987 RMK A01 T00791047  RH  041%=      5-min Rain = 0
KLO1 210621Z 16007KT 08/M05 A2987 RMK A01 T00791047  RH  041%=      5-min Rain = 0
KLO1 210622Z 16007KT 08/M05 A2987 RMK A01 T00801047  RH  040%=      5-min Rain = 0
KLO1 210623Z 16007KT 08/M05 A2987 RMK A01 T00801047  RH  040%=      5-min Rain = 0
KLO1 210624Z 16008KT 08/M05 A2987 RMK A01 T00801047  RH  040%=      5-min Rain = 0
KLO1 210625Z 16007KT 08/M05 A2987 RMK A01 T00811047  RH  040%=      5-min Rain = 0
KLO1 210626Z 16008KT 08/M05 A2987 RMK A01 T00811047  RH  040%=      5-min Rain = 0
KLO1 210627Z 16008KT 08/M05 A2987 RMK A01 T00811047  RH  040%=      5-min Rain = 0
KLO1 210628Z 16008KT 08/M05 A2986 RMK A01 T00821047  RH  040%=      5-min Rain = 0
KLO1 210629Z 15008KT 08/M05 A2986 RMK A01 T00821047  RH  040%=      5-min Rain = 0
KLO1 210630Z 15007KT 08/M05 A2986 RMK A01 T00831047  RH  040%=      5-min Rain = 0
KLO1 210631Z 15007KT 08/M05 A2986 RMK A01 T00831047  RH  039%=      5-min Rain = 0
KLO1 210632Z 15007KT 08/M05 A2986 RMK A01 T00831047  RH  039%=      5-min Rain = 0
KLO1 210633Z 16007KT 08/M05 A2986 RMK A01 T00831047  RH  039%=      5-min Rain = 0
KLO1 210634Z 16008KT 08/M05 A2986 RMK A01 T00831047  RH  039%=      5-min Rain = 0
KLO1 210635Z 16007KT 08/M05 A2987 RMK A01 T00831048  RH  039%=      5-min Rain = 0
KLO1 210636Z 17007KT 08/M05 A2987 RMK A01 T00831047  RH  039%=      5-min Rain = 0
KLO1 210637Z 17007KT 08/M05 A2987 RMK A01 T00831047  RH  039%=      5-min Rain = 0
KLO1 210638Z 17007KT 08/M05 A2987 RMK A01 T00831047  RH  039%=      5-min Rain = 0
KLO1 210639Z 17007KT 08/M05 A2987 RMK A01 T00831047  RH  039%=      5-min Rain = 0
KLO1 210640Z 16008KT 08/M05 A2987 RMK A01 T00831047  RH  039%=      5-min Rain = 0
KLO1 210641Z 16007KT 08/M05 A2987 RMK A01 T00831047  RH  039%=      5-min Rain = 0
KLO1 210642Z 16007KT 08/M05 A2986 RMK A01 T00831047  RH  039%=      5-min Rain = 0
KLO1 210643Z 15007KT 08/M05 A2986 RMK A01 T00831047  RH  039%=      5-min Rain = 0
KLO1 210644Z 16008KT 08/M05 A2987 RMK A01 T00831047  RH  039%=      5-min Rain = 0
KLO1 210645Z 17007KT 08/M05 A2987 RMK A01 T00831047  RH  039%=      5-min Rain = 0
KLO1 210646Z 17008KT 08/M05 A2987 RMK A01 T00831047  RH  039%=      5-min Rain = 0
KLO1 210647Z 17008KT 08/M05 A2987 RMK A01 T00831047  RH  039%=      5-min Rain = 0
KLO1 210648Z 16007KT 08/M05 A2987 RMK A01 T00831047  RH  039%=      5-min Rain = 0
KLO1 210649Z 16009KT 08/M05 A2987 RMK A01 T00831046  RH  039%=      5-min Rain = 0
KLO1 210650Z 17008KT 08/M05 A2987 RMK A01 T00831047  RH  039%=      5-min Rain = 0
KLO1 210651Z 17008KT 08/M05 A2987 RMK A01 T00841047  RH  039%=      5-min Rain = 0
KLO1 210652Z 16008KT 08/M05 A2987 RMK A01 T00841047  RH  039%=      5-min Rain = 0
KLO1 210653Z 16008KT 08/M05 A2987 RMK A01 T00841047  RH  039%=      5-min Rain = 0
KLO1 210654Z 16008KT 08/M05 A2987 RMK A01 T00841047  RH  039%=      5-min Rain = 0
KLO1 210655Z 16008KT 08/M05 A2987 RMK A01 T00841047  RH  039%=      5-min Rain = 0
KLO1 210656Z 16008KT 08/M05 A2987 RMK A01 T00841047  RH  039%=      5-min Rain = 0
KLO1 210657Z 16009KT 08/M05 A2987 RMK A01 T00841047  RH  039%=      5-min Rain = 0
KLO1 210658Z 16008KT 08/M05 A2987 RMK A01 T00841047  RH  039%=      5-min Rain = 0
KLO1 210659Z 16009KT 08/M05 A2987 RMK A01 T00841047  RH  039%=      5-min Rain = 0
KLO1 210700Z 16009KT 08/M05 A2987 RMK A01 T00841047  RH  039%=      5-min Rain = 0
KLO1 210701Z 16008KT 08/M05 A2987 RMK A01 T00841047  RH  039%=      5-min Rain = 0
KLO1 210702Z 16008KT 08/M05 A2987 RMK A01 T00841047  RH  039%=      5-min Rain = 0
KLO1 210703Z 16008KT 08/M05 A2987 RMK A01 T00841047  RH  039%=      5-min Rain = 0
KLO1 210704Z 16009KT 08/M05 A2987 RMK A01 T00841047  RH  039%=      5-min Rain = 0
KLO1 210705Z 16009KT 08/M05 A2987 RMK A01 T00841047  RH  039%=      5-min Rain = 0
KLO1 210706Z 16009KT 08/M05 A2987 RMK A01 T00841047  RH  039%=      5-min Rain = 0
KLO1 210707Z 16009KT 08/M05 A2987 RMK A01 T00841047  RH  039%=      5-min Rain = 0
KLO1 210708Z 16009KT 09/M05 A2987 RMK A01 T00851047  RH  039%=      5-min Rain = 0
KLO1 210709Z 16009KT 09/M05 A2986 RMK A01 T00851047  RH  039%=      5-min Rain = 0
KLO1 210710Z 16009KT 09/M05 A2986 RMK A01 T00851047  RH  039%=      5-min Rain = 0
KLO1 210711Z 16009KT 09/M05 A2986 RMK A01 T00851047  RH  039%=      5-min Rain = 0
KLO1 210712Z 16009KT 09/M05 A2986 RMK A01 T00851047  RH  039%=      5-min Rain = 0
KLO1 210713Z 16009KT 09/M05 A2987 RMK A01 T00851047  RH  039%=      5-min Rain = 0
KLO1 210714Z 16009KT 09/M05 A2987 RMK A01 T00851047  RH  039%=      5-min Rain = 0
KLO1 210715Z 16009KT 09/M05 A2987 RMK A01 T00851047  RH  039%=      5-min Rain = 0
KLO1 210716Z 16009KT 09/M05 A2987 RMK A01 T00851047  RH  039%=      5-min Rain = 0
KLO1 210717Z 16009KT 09/M05 A2987 RMK A01 T00851047  RH  039%=      5-min Rain = 0
KLO1 210718Z 17009KT 09/M05 A2987 RMK A01 T00851047  RH  039%=      5-min Rain = 0
KLO1 210719Z 17009KT 09/M05 A2987 RMK A01 T00851047  RH  039%=      5-min Rain = 0
KLO1 210720Z 16009KT 09/M05 A2987 RMK A01 T00851047  RH  039%=      5-min Rain = 0
KLO1 210721Z 16010KT 09/M05 A2987 RMK A01 T00851047  RH  039%=      5-min Rain = 0
KLO1 210722Z 16009KT 09/M05 A2987 RMK A01 T00851047  RH  039%=      5-min Rain = 0
KLO1 210723Z 16009KT 09/M05 A2987 RMK A01 T00851047  RH  039%=      5-min Rain = 0
KLO1 210724Z 16009KT 09/M05 A2987 RMK A01 T00851047  RH  039%=      5-min Rain = 0
KLO1 210725Z 16009KT 09/M05 A2987 RMK A01 T00851047  RH  039%=      5-min Rain = 0
KLO1 210726Z 16011KT 09/M05 A2987 RMK A01 T00851047  RH  039%=      5-min Rain = 0
KLO1 210727Z 16010KT 09/M05 A2987 RMK A01 T00851047  RH  039%=      5-min Rain = 0
KLO1 210728Z 16010KT 09/M05 A2986 RMK A01 T00851047  RH  039%=      5-min Rain = 0
KLO1 210729Z 16010KT 09/M05 A2987 RMK A01 T00851047  RH  039%=      5-min Rain = 0
KLO1 210730Z 16010KT 09/M05 A2987 RMK A01 T00851047  RH  039%=      5-min Rain = 0
KLO1 210731Z 16011KT 09/M05 A2987 RMK A01 T00851047  RH  039%=      5-min Rain = 0
KLO1 210732Z 16011KT 09/M05 A2987 RMK A01 T00851047  RH  039%=      5-min Rain = 0
KLO1 210733Z 16011KT 09/M05 A2987 RMK A01 T00851047  RH  039%=      5-min Rain = 0
KLO1 210734Z 16010KT 09/M05 A2987 RMK A01 T00851047  RH  039%=      5-min Rain = 0
KLO1 210735Z 16010KT 08/M05 A2987 RMK A01 T00841047  RH  039%=      5-min Rain = 0
KLO1 210736Z 16010KT 08/M05 A2987 RMK A01 T00831047  RH  039%=      5-min Rain = 0
KLO1 210737Z 16010KT 08/M05 A2987 RMK A01 T00831047  RH  039%=      5-min Rain = 0
KLO1 210738Z 16011KT 08/M05 A2987 RMK A01 T00831048  RH  039%=      5-min Rain = 0
KLO1 210739Z 16011KT 08/M05 A2987 RMK A01 T00841047  RH  039%=      5-min Rain = 0
KLO1 210740Z 16011KT 08/M05 A2987 RMK A01 T00841047  RH  039%=      5-min Rain = 0
KLO1 210741Z 16010KT 08/M05 A2987 RMK A01 T00841047  RH  039%=      5-min Rain = 0
KLO1 210742Z 16010KT 08/M05 A2987 RMK A01 T00841047  RH  039%=      5-min Rain = 0
KLO1 210743Z 16010KT 08/M05 A2987 RMK A01 T00841048  RH  039%=      5-min Rain = 0
KLO1 210744Z 16009KT 08/M05 A2987 RMK A01 T00841047  RH  039%=      5-min Rain = 0
KLO1 210745Z 16010KT 08/M05 A2987 RMK A01 T00831048  RH  039%=      5-min Rain = 0
KLO1 210746Z 16010KT 08/M05 A2987 RMK A01 T00831047  RH  039%=      5-min Rain = 0
KLO1 210747Z 16010KT 08/M05 A2987 RMK A01 T00831047  RH  039%=      5-min Rain = 0
KLO1 210748Z 17010KT 08/M05 A2987 RMK A01 T00831048  RH  039%=      5-min Rain = 0
KLO1 210749Z 17010KT 08/M05 A2987 RMK A01 T00821047  RH  039%=      5-min Rain = 0
KLO1 210750Z 16010KT 08/M05 A2987 RMK A01 T00821048  RH  039%=      5-min Rain = 0
KLO1 210751Z 16010KT 08/M05 A2987 RMK A01 T00821047  RH  040%=      5-min Rain = 0
KLO1 210752Z 17009KT 08/M05 A2987 RMK A01 T00821048  RH  040%=      5-min Rain = 0
KLO1 210753Z 17010KT 08/M05 A2987 RMK A01 T00831047  RH  039%=      5-min Rain = 0
KLO1 210754Z 17010KT 08/M05 A2987 RMK A01 T00821048  RH  039%=      5-min Rain = 0
KLO1 210755Z 16010KT 08/M05 A2987 RMK A01 T00821048  RH  040%=      5-min Rain = 0
KLO1 210756Z 17009KT 08/M05 A2987 RMK A01 T00821048  RH  039%=      5-min Rain = 0
KLO1 210757Z 17009KT 08/M05 A2987 RMK A01 T00821048  RH  040%=      5-min Rain = 0
KLO1 210758Z 17010KT 08/M05 A2987 RMK A01 T00821047  RH  040%=      5-min Rain = 0
KLO1 210759Z 17009KT 08/M05 A2987 RMK A01 T00821048  RH  040%=      5-min Rain = 0
KLO1 210800Z 17010KT 08/M05 A2987 RMK A01 T00811048  RH  040%=      5-min Rain = 0
KLO1 210801Z 16009KT 08/M05 A2987 RMK A01 T00811048  RH  040%=      5-min Rain = 0
KLO1 210802Z 17010KT 08/M05 A2987 RMK A01 T00811048  RH  040%=      5-min Rain = 0
KLO1 210803Z 16009KT 08/M05 A2987 RMK A01 T00811047  RH  040%=      5-min Rain = 0
KLO1 210804Z 16009KT 08/M05 A2987 RMK A01 T00811048  RH  040%=      5-min Rain = 0
KLO1 210805Z 16008KT 08/M05 A2987 RMK A01 T00801048  RH  040%=      5-min Rain = 0
KLO1 210806Z 16009KT 08/M05 A2987 RMK A01 T00791048  RH  040%=      5-min Rain = 0
KLO1 210807Z 16009KT 08/M05 A2987 RMK A01 T00791048  RH  040%=      5-min Rain = 0
KLO1 210808Z 16009KT 08/M05 A2987 RMK A01 T00781048  RH  041%=      5-min Rain = 0
KLO1 210809Z 16009KT 08/M05 A2987 RMK A01 T00781048  RH  041%=      5-min Rain = 0
KLO1 210810Z 16008KT 08/M05 A2987 RMK A01 T00781048  RH  041%=      5-min Rain = 0
KLO1 210811Z 16008KT 08/M05 A2987 RMK A01 T00771047  RH  041%=      5-min Rain = 0
KLO1 210812Z 16008KT 08/M05 A2987 RMK A01 T00771047  RH  041%=      5-min Rain = 0
KLO1 210813Z 16008KT 08/M05 A2987 RMK A01 T00771047  RH  041%=      5-min Rain = 0
KLO1 210814Z 16008KT 08/M05 A2987 RMK A01 T00771047  RH  041%=      5-min Rain = 0
KLO1 210815Z 16007KT 08/M05 A2987 RMK A01 T00761047  RH  041%=      5-min Rain = 0
KLO1 210816Z 16008KT 08/M05 A2987 RMK A01 T00761047  RH  042%=      5-min Rain = 0
KLO1 210817Z 16008KT 08/M05 A2987 RMK A01 T00751047  RH  042%=      5-min Rain = 0
KLO1 210818Z 16008KT 08/M05 A2987 RMK A01 T00751047  RH  042%=      5-min Rain = 0
KLO1 210819Z 16008KT 08/M05 A2987 RMK A01 T00751047  RH  042%=      5-min Rain = 0
KLO1 210820Z 16008KT 08/M05 A2987 RMK A01 T00751047  RH  042%=      5-min Rain = 0
KLO1 210821Z 16007KT 07/M05 A2987 RMK A01 T00741047  RH  042%=      5-min Rain = 0
KLO1 210822Z 16007KT 07/M05 A2987 RMK A01 T00741047  RH  042%=      5-min Rain = 0
KLO1 210823Z 16007KT 07/M05 A2987 RMK A01 T00731047  RH  042%=      5-min Rain = 0
KLO1 210824Z 16008KT 07/M05 A2986 RMK A01 T00731047  RH  042%=      5-min Rain = 0
KLO1 210825Z 16008KT 07/M05 A2986 RMK A01 T00731046  RH  042%=      5-min Rain = 0
KLO1 210826Z 16008KT 07/M05 A2987 RMK A01 T00731047  RH  042%=      5-min Rain = 0
KLO1 210827Z 17008KT 07/M05 A2987 RMK A01 T00731046  RH  043%=      5-min Rain = 0
KLO1 210828Z 16008KT 07/M05 A2987 RMK A01 T00731046  RH  043%=      5-min Rain = 0
KLO1 210829Z 16008KT 07/M05 A2987 RMK A01 T00731046  RH  043%=      5-min Rain = 0
KLO1 210830Z 16008KT 07/M05 A2987 RMK A01 T00721046  RH  043%=      5-min Rain = 0
KLO1 210831Z 16008KT 07/M05 A2986 RMK A01 T00721045  RH  043%=      5-min Rain = 0
KLO1 210832Z 16008KT 07/M05 A2986 RMK A01 T00721046  RH  043%=      5-min Rain = 0
KLO1 210833Z 16008KT 07/M05 A2986 RMK A01 T00721045  RH  043%=      5-min Rain = 0
KLO1 210834Z 16009KT 07/M05 A2986 RMK A01 T00721045  RH  043%=      5-min Rain = 0
KLO1 210835Z 16009KT 07/M05 A2986 RMK A01 T00731045  RH  043%=      5-min Rain = 0
KLO1 210836Z 16009KT 07/M05 A2986 RMK A01 T00731045  RH  043%=      5-min Rain = 0
KLO1 210837Z 15009KT 07/M05 A2986 RMK A01 T00731045  RH  043%=      5-min Rain = 0
KLO1 210838Z 15009KT 07/M05 A2986 RMK A01 T00731045  RH  043%=      5-min Rain = 0
KLO1 210839Z 15009KT 07/M05 A2986 RMK A01 T00731045  RH  043%=      5-min Rain = 0
KLO1 210840Z 15009KT 07/M05 A2986 RMK A01 T00731045  RH  043%=      5-min Rain = 0
KLO1 210841Z 16009KT 07/M05 A2986 RMK A01 T00731045  RH  043%=      5-min Rain = 0
KLO1 210842Z 15009KT 07/M04 A2986 RMK A01 T00731044  RH  043%=      5-min Rain = 0
KLO1 210843Z 16008KT 07/M04 A2986 RMK A01 T00741044  RH  043%=      5-min Rain = 0
KLO1 210844Z 15008KT 07/M04 A2986 RMK A01 T00741044  RH  043%=      5-min Rain = 0
KLO1 210845Z 16008KT 07/M04 A2986 RMK A01 T00741044  RH  043%=      5-min Rain = 0
KLO1 210846Z 15008KT 07/M04 A2986 RMK A01 T00741043  RH  043%=      5-min Rain = 0
KLO1 210847Z 15008KT 07/M04 A2986 RMK A01 T00741043  RH  043%=      5-min Rain = 0
KLO1 210848Z 15008KT 07/M04 A2986 RMK A01 T00741043  RH  043%=      5-min Rain = 0
KLO1 210849Z 15008KT 07/M04 A2986 RMK A01 T00741043  RH  043%=      5-min Rain = 0
KLO1 210850Z 15008KT 07/M04 A2986 RMK A01 T00741043  RH  043%=      5-min Rain = 0
KLO1 210851Z 15008KT 07/M04 A2986 RMK A01 T00741043  RH  043%=      5-min Rain = 0
KLO1 210852Z 15008KT 07/M04 A2985 RMK A01 T00741043  RH  043%=      5-min Rain = 0
KLO1 210853Z 15009KT 07/M04 A2985 RMK A01 T00741043  RH  043%=      5-min Rain = 0
KLO1 210854Z 15008KT 07/M04 A2985 RMK A01 T00731043  RH  043%=      5-min Rain = 0
KLO1 210855Z 15008KT 07/M04 A2985 RMK A01 T00731043  RH  043%=      5-min Rain = 0
KLO1 210856Z 15008KT 07/M04 A2985 RMK A01 T00731043  RH  044%=      5-min Rain = 0
KLO1 210857Z 15008KT 07/M04 A2985 RMK A01 T00731043  RH  044%=      5-min Rain = 0
KLO1 210858Z 15008KT 07/M04 A2985 RMK A01 T00731042  RH  044%=      5-min Rain = 0
KLO1 210859Z 15008KT 07/M04 A2985 RMK A01 T00731042  RH  044%=      5-min Rain = 0
KLO1 210900Z 16008KT 07/M04 A2985 RMK A01 T00731042  RH  044%=      5-min Rain = 0
KLO1 210901Z 15008KT 07/M04 A2985 RMK A01 T00731042  RH  044%=      5-min Rain = 0
KLO1 210902Z 15009KT 07/M04 A2985 RMK A01 T00731042  RH  044%=      5-min Rain = 0
KLO1 210903Z 16008KT 07/M04 A2985 RMK A01 T00721042  RH  044%=      5-min Rain = 0
KLO1 210904Z 15008KT 07/M04 A2985 RMK A01 T00721042  RH  044%=      5-min Rain = 0
KLO1 210905Z 16008KT 07/M04 A2985 RMK A01 T00721042  RH  044%=      5-min Rain = 0
KLO1 210906Z 15008KT 07/M04 A2985 RMK A01 T00721042  RH  044%=      5-min Rain = 0
KLO1 210907Z 16007KT 07/M04 A2985 RMK A01 T00711042  RH  044%=      5-min Rain = 0
KLO1 210908Z 16007KT 07/M04 A2985 RMK A01 T00711042  RH  044%=      5-min Rain = 0
KLO1 210909Z 16008KT 07/M04 A2985 RMK A01 T00711042  RH  045%=      5-min Rain = 0
KLO1 210910Z 16008KT 07/M04 A2985 RMK A01 T00711041  RH  045%=      5-min Rain = 0
KLO1 210911Z 16007KT 07/M04 A2985 RMK A01 T00701042  RH  045%=      5-min Rain = 0
KLO1 210912Z 16008KT 07/M04 A2985 RMK A01 T00701041  RH  045%=      5-min Rain = 0
KLO1 210913Z 16008KT 07/M04 A2985 RMK A01 T00701041  RH  045%=      5-min Rain = 0
KLO1 210914Z 15008KT 07/M04 A2985 RMK A01 T00691041  RH  045%=      5-min Rain = 0
KLO1 210915Z 15008KT 07/M04 A2985 RMK A01 T00691041  RH  045%=      5-min Rain = 0
KLO1 210916Z 15008KT 07/M04 A2985 RMK A01 T00691041  RH  045%=      5-min Rain = 0
KLO1 210917Z 15008KT 07/M04 A2985 RMK A01 T00691041  RH  045%=      5-min Rain = 0
KLO1 210918Z 15008KT 07/M04 A2985 RMK A01 T00691041  RH  046%=      5-min Rain = 0
KLO1 210919Z 16008KT 07/M04 A2985 RMK A01 T00691040  RH  046%=      5-min Rain = 0
KLO1 210920Z 16008KT 07/M04 A2985 RMK A01 T00681041  RH  046%=      5-min Rain = 0
KLO1 210921Z 16008KT 07/M04 A2985 RMK A01 T00681040  RH  046%=      5-min Rain = 0
KLO1 210922Z 16007KT 07/M04 A2985 RMK A01 T00681040  RH  046%=      5-min Rain = 0
KLO1 210923Z 16007KT 07/M04 A2985 RMK A01 T00681040  RH  046%=      5-min Rain = 0
KLO1 210924Z 16007KT 07/M04 A2985 RMK A01 T00681040  RH  046%=      5-min Rain = 0
KLO1 210925Z 16007KT 07/M04 A2985 RMK A01 T00681040  RH  046%=      5-min Rain = 0
KLO1 210926Z 16007KT 07/M04 A2985 RMK A01 T00681040  RH  046%=      5-min Rain = 0
KLO1 210927Z 16007KT 07/M04 A2985 RMK A01 T00671040  RH  046%=      5-min Rain = 0
KLO1 210928Z 16007KT 07/M04 A2985 RMK A01 T00671040  RH  046%=      5-min Rain = 0
KLO1 210929Z 16007KT 07/M04 A2985 RMK A01 T00671039  RH  047%=      5-min Rain = 0
KLO1 210930Z 16008KT 07/M04 A2985 RMK A01 T00671040  RH  047%=      5-min Rain = 0
KLO1 210931Z 16008KT 07/M04 A2985 RMK A01 T00661039  RH  047%=      5-min Rain = 0
KLO1 210932Z 16008KT 07/M04 A2985 RMK A01 T00661039  RH  047%=      5-min Rain = 0
KLO1 210933Z 16008KT 07/M04 A2985 RMK A01 T00661039  RH  047%=      5-min Rain = 0
KLO1 210934Z 17008KT 07/M04 A2985 RMK A01 T00661039  RH  047%=      5-min Rain = 0
KLO1 210935Z 16008KT 07/M04 A2985 RMK A01 T00661039  RH  047%=      5-min Rain = 0
KLO1 210936Z 16008KT 07/M04 A2985 RMK A01 T00661039  RH  047%=      5-min Rain = 0
KLO1 210937Z 16008KT 07/M04 A2985 RMK A01 T00661039  RH  047%=      5-min Rain = 0
KLO1 210938Z 16008KT 07/M04 A2985 RMK A01 T00671038  RH  047%=      5-min Rain = 0
KLO1 210939Z 16008KT 07/M04 A2985 RMK A01 T00661039  RH  047%=      5-min Rain = 0
KLO1 210940Z 16007KT 07/M04 A2985 RMK A01 T00661039  RH  047%=      5-min Rain = 0
KLO1 210941Z 16007KT 07/M04 A2985 RMK A01 T00661039  RH  047%=      5-min Rain = 0
KLO1 210942Z 16007KT 07/M04 A2985 RMK A01 T00671038  RH  047%=      5-min Rain = 0
KLO1 210943Z 16007KT 07/M04 A2985 RMK A01 T00671039  RH  047%=      5-min Rain = 0
KLO1 210944Z 16007KT 07/M04 A2984 RMK A01 T00671038  RH  047%=      5-min Rain = 0
KLO1 210945Z 16007KT 07/M04 A2984 RMK A01 T00671038  RH  047%=      5-min Rain = 0
KLO1 210946Z 16006KT 07/M04 A2984 RMK A01 T00661038  RH  047%=      5-min Rain = 0
KLO1 210947Z 16006KT 07/M04 A2984 RMK A01 T00661038  RH  047%=      5-min Rain = 0
KLO1 210948Z 15006KT 07/M04 A2984 RMK A01 T00661038  RH  047%=      5-min Rain = 0
KLO1 210949Z 15006KT 07/M04 A2984 RMK A01 T00651038  RH  048%=      5-min Rain = 0
KLO1 210950Z 15006KT 07/M04 A2984 RMK A01 T00651038  RH  048%=      5-min Rain = 0
KLO1 210951Z 15006KT 07/M04 A2984 RMK A01 T00651038  RH  048%=      5-min Rain = 0
KLO1 210952Z 15006KT 07/M04 A2984 RMK A01 T00651038  RH  048%=      5-min Rain = 0
KLO1 210953Z 15006KT 06/M04 A2984 RMK A01 T00641038  RH  048%=      5-min Rain = 0
KLO1 210954Z 15006KT 06/M04 A2984 RMK A01 T00641038  RH  048%=      5-min Rain = 0
KLO1 210955Z 15006KT 06/M04 A2984 RMK A01 T00631038  RH  048%=      5-min Rain = 0
KLO1 210956Z 15006KT 06/M04 A2984 RMK A01 T00631037  RH  049%=      5-min Rain = 0
KLO1 210957Z 15006KT 06/M04 A2984 RMK A01 T00621038  RH  049%=      5-min Rain = 0
KLO1 210958Z 15006KT 06/M04 A2984 RMK A01 T00621038  RH  049%=      5-min Rain = 0
KLO1 210959Z 15006KT 06/M04 A2984 RMK A01 T00611038  RH  049%=      5-min Rain = 0
KLO1 211000Z 15006KT 06/M04 A2984 RMK A01 T00611038  RH  049%=      5-min Rain = 0
KLO1 211001Z 15006KT 06/M04 A2984 RMK A01 T00601038  RH  049%=      5-min Rain = 0
KLO1 211002Z 15006KT 06/M04 A2984 RMK A01 T00591038  RH  050%=      5-min Rain = 0
KLO1 211003Z 15006KT 06/M04 A2984 RMK A01 T00591038  RH  050%=      5-min Rain = 0
KLO1 211004Z 15006KT 06/M04 A2984 RMK A01 T00581038  RH  050%=      5-min Rain = 0
KLO1 211005Z 15006KT 06/M04 A2984 RMK A01 T00581038  RH  050%=      5-min Rain = 0
KLO1 211006Z 15006KT 06/M04 A2984 RMK A01 T00571039  RH  050%=      5-min Rain = 0
KLO1 211007Z 15006KT 06/M04 A2983 RMK A01 T00561039  RH  051%=      5-min Rain = 0
KLO1 211008Z 15006KT 06/M04 A2983 RMK A01 T00561039  RH  051%=      5-min Rain = 0
KLO1 211009Z 15006KT 06/M04 A2984 RMK A01 T00561038  RH  051%=      5-min Rain = 0
KLO1 211010Z 15006KT 06/M04 A2984 RMK A01 T00561038  RH  051%=      5-min Rain = 0
KLO1 211011Z 16006KT 06/M04 A2984 RMK A01 T00561038  RH  051%=      5-min Rain = 0
KLO1 211012Z 16006KT 06/M04 A2983 RMK A01 T00571038  RH  051%=      5-min Rain = 0
KLO1 211013Z 15007KT 06/M04 A2983 RMK A01 T00581037  RH  050%=      5-min Rain = 0
KLO1 211014Z 15007KT 06/M04 A2983 RMK A01 T00581037  RH  050%=      5-min Rain = 0
KLO1 211015Z 15006KT 06/M04 A2983 RMK A01 T00591037  RH  050%=      5-min Rain = 0
KLO1 211016Z 15006KT 06/M04 A2983 RMK A01 T00591037  RH  050%=      5-min Rain = 0
KLO1 211017Z 15006KT 06/M04 A2983 RMK A01 T00591037  RH  050%=      5-min Rain = 0
KLO1 211018Z 15005KT 06/M04 A2983 RMK A01 T00581038  RH  050%=      5-min Rain = 0
KLO1 211019Z 15005KT 06/M04 A2984 RMK A01 T00571039  RH  050%=      5-min Rain = 0
KLO1 211020Z 14005KT 06/M04 A2984 RMK A01 T00561039  RH  050%=      5-min Rain = 0
KLO1 211021Z 15005KT 06/M04 A2984 RMK A01 T00561040  RH  050%=      5-min Rain = 0
KLO1 211022Z 15005KT 06/M04 A2984 RMK A01 T00551040  RH  051%=      5-min Rain = 0
KLO1 211023Z 15006KT 05/M04 A2983 RMK A01 T00541039  RH  051%=      5-min Rain = 0
KLO1 211024Z 15006KT 05/M04 A2983 RMK A01 T00541038  RH  052%=      5-min Rain = 0
KLO1 211025Z 15006KT 05/M04 A2983 RMK A01 T00531038  RH  052%=      5-min Rain = 0
KLO1 211026Z 15006KT 05/M04 A2983 RMK A01 T00531038  RH  052%=      5-min Rain = 0
KLO1 211027Z 15006KT 05/M04 A2983 RMK A01 T00531038  RH  052%=      5-min Rain = 0
KLO1 211028Z 15006KT 05/M04 A2983 RMK A01 T00531037  RH  052%=      5-min Rain = 0
KLO1 211029Z 15006KT 05/M04 A2983 RMK A01 T00531037  RH  052%=      5-min Rain = 0
KLO1 211030Z 15007KT 05/M04 A2983 RMK A01 T00531037  RH  052%=      5-min Rain = 0
KLO1 211031Z 15007KT 05/M04 A2983 RMK A01 T00531037  RH  052%=      5-min Rain = 0
KLO1 211032Z 15007KT 05/M04 A2983 RMK A01 T00531037  RH  052%=      5-min Rain = 0
KLO1 211033Z 15008KT 05/M04 A2983 RMK A01 T00531037  RH  052%=      5-min Rain = 0
KLO1 211034Z 15007KT 05/M04 A2983 RMK A01 T00541036  RH  052%=      5-min Rain = 0
KLO1 211035Z 15008KT 06/M04 A2983 RMK A01 T00551036  RH  052%=      5-min Rain = 0
KLO1 211036Z 15007KT 06/M04 A2983 RMK A01 T00551036  RH  052%=      5-min Rain = 0
KLO1 211037Z 15007KT 06/M04 A2983 RMK A01 T00561036  RH  051%=      5-min Rain = 0
KLO1 211038Z 15006KT 06/M04 A2983 RMK A01 T00571036  RH  051%=      5-min Rain = 0
KLO1 211039Z 15006KT 06/M04 A2983 RMK A01 T00581036  RH  051%=      5-min Rain = 0
KLO1 211040Z 16006KT 06/M04 A2983 RMK A01 T00581036  RH  051%=      5-min Rain = 0
KLO1 211041Z 16006KT 06/M04 A2983 RMK A01 T00581036  RH  051%=      5-min Rain = 0
KLO1 211042Z 16006KT 06/M04 A2983 RMK A01 T00581036  RH  051%=      5-min Rain = 0
KLO1 211043Z 15006KT 06/M04 A2983 RMK A01 T00581036  RH  051%=      5-min Rain = 0
KLO1 211044Z 16006KT 06/M04 A2983 RMK A01 T00571036  RH  051%=      5-min Rain = 0
KLO1 211045Z 16006KT 06/M04 A2983 RMK A01 T00571036  RH  051%=      5-min Rain = 0
KLO1 211046Z 16006KT 06/M04 A2983 RMK A01 T00571036  RH  051%=      5-min Rain = 0
KLO1 211047Z 15006KT 06/M04 A2983 RMK A01 T00561036  RH  051%=      5-min Rain = 0
KLO1 211048Z 15006KT 06/M04 A2983 RMK A01 T00561036  RH  052%=      5-min Rain = 0
KLO1 211049Z 14006KT 06/M04 A2983 RMK A01 T00561036  RH  052%=      5-min Rain = 0
KLO1 211050Z 14007KT 06/M04 A2983 RMK A01 T00551036  RH  052%=      5-min Rain = 0
KLO1 211051Z 14006KT 06/M04 A2983 RMK A01 T00551037  RH  052%=      5-min Rain = 0
KLO1 211052Z 14006KT 05/M04 A2983 RMK A01 T00541037  RH  052%=      5-min Rain = 0
KLO1 211053Z 13006KT 05/M04 A2983 RMK A01 T00531037  RH  052%=      5-min Rain = 0
KLO1 211054Z 13006KT 05/M04 A2983 RMK A01 T00531037  RH  052%=      5-min Rain = 0
KLO1 211055Z 13007KT 05/M04 A2983 RMK A01 T00531036  RH  053%=      5-min Rain = 0
KLO1 211056Z 13007KT 05/M04 A2983 RMK A01 T00531036  RH  053%=      5-min Rain = 0
KLO1 211057Z 14006KT 05/M04 A2983 RMK A01 T00531036  RH  053%=      5-min Rain = 0
KLO1 211058Z 14006KT 05/M04 A2983 RMK A01 T00531036  RH  053%=      5-min Rain = 0
KLO1 211059Z 15006KT 05/M04 A2983 RMK A01 T00541036  RH  052%=      5-min Rain = 0
KLO1 211100Z 15006KT 05/M04 A2983 RMK A01 T00541036  RH  052%=      5-min Rain = 0
KLO1 211101Z 15006KT 06/M04 A2983 RMK A01 T00551035  RH  052%=      5-min Rain = 0
KLO1 211102Z 15006KT 06/M04 A2983 RMK A01 T00551036  RH  052%=      5-min Rain = 0
KLO1 211103Z 15006KT 06/M04 A2983 RMK A01 T00551035  RH  052%=      5-min Rain = 0
KLO1 211104Z 16006KT 06/M04 A2983 RMK A01 T00561035  RH  052%=      5-min Rain = 0
KLO1 211105Z 16006KT 06/M04 A2983 RMK A01 T00571035  RH  052%=      5-min Rain = 0
KLO1 211106Z 16007KT 06/M03 A2983 RMK A01 T00591033  RH  052%=      5-min Rain = 0
KLO1 211107Z 16007KT 06/M03 A2983 RMK A01 T00631032  RH  051%=      5-min Rain = 0
KLO1 211108Z 16008KT 07/M03 A2983 RMK A01 T00661031  RH  050%=      5-min Rain = 0
KLO1 211109Z 16008KT 07/M03 A2983 RMK A01 T00671032  RH  049%=      5-min Rain = 0
KLO1 211110Z 16008KT 07/M03 A2983 RMK A01 T00691032  RH  049%=      5-min Rain = 0
KLO1 211111Z 16007KT 07/M03 A2983 RMK A01 T00701033  RH  048%=      5-min Rain = 0
KLO1 211112Z 15007KT 07/M03 A2983 RMK A01 T00711033  RH  048%=      5-min Rain = 0
KLO1 211113Z 16008KT 07/M03 A2983 RMK A01 T00711033  RH  048%=      5-min Rain = 0
KLO1 211114Z 16007KT 07/M03 A2983 RMK A01 T00711033  RH  048%=      5-min Rain = 0
KLO1 211115Z 16007KT 07/M03 A2983 RMK A01 T00711033  RH  047%=      5-min Rain = 0
KLO1 211116Z 17007KT 07/M03 A2983 RMK A01 T00711033  RH  047%=      5-min Rain = 0
KLO1 211117Z 17006KT 07/M03 A2983 RMK A01 T00711034  RH  047%=      5-min Rain = 0
KLO1 211118Z 16007KT 07/M03 A2983 RMK A01 T00711034  RH  047%=      5-min Rain = 0
KLO1 211119Z 16007KT 07/M03 A2983 RMK A01 T00721034  RH  047%=      5-min Rain = 0
KLO1 211120Z 16007KT 07/M03 A2983 RMK A01 T00721033  RH  047%=      5-min Rain = 0
KLO1 211121Z 15007KT 07/M03 A2983 RMK A01 T00721033  RH  047%=      5-min Rain = 0
KLO1 211122Z 16008KT 07/M03 A2983 RMK A01 T00721033  RH  047%=      5-min Rain = 0
KLO1 211123Z 15007KT 07/M03 A2983 RMK A01 T00731033  RH  047%=      5-min Rain = 0
KLO1 211124Z 15008KT 07/M03 A2983 RMK A01 T00721033  RH  047%=      5-min Rain = 0
KLO1 211125Z 15008KT 07/M03 A2983 RMK A01 T00721033  RH  047%=      5-min Rain = 0
KLO1 211126Z 15008KT 07/M03 A2983 RMK A01 T00711033  RH  047%=      5-min Rain = 0
KLO1 211127Z 15008KT 07/M03 A2983 RMK A01 T00711033  RH  047%=      5-min Rain = 0
KLO1 211128Z 16007KT 07/M03 A2983 RMK A01 T00711033  RH  047%=      5-min Rain = 0
KLO1 211129Z 16006KT 07/M03 A2983 RMK A01 T00711034  RH  047%=      5-min Rain = 0
KLO1 211130Z 16007KT 07/M03 A2983 RMK A01 T00711033  RH  047%=      5-min Rain = 0
KLO1 211131Z 16007KT 07/M03 A2983 RMK A01 T00711034  RH  047%=      5-min Rain = 0
KLO1 211132Z 16007KT 07/M03 A2983 RMK A01 T00711034  RH  047%=      5-min Rain = 0
KLO1 211133Z 15007KT 07/M03 A2983 RMK A01 T00711033  RH  047%=      5-min Rain = 0
KLO1 211134Z 15007KT 07/M03 A2983 RMK A01 T00721033  RH  047%=      5-min Rain = 0
KLO1 211135Z 15006KT 07/M03 A2983 RMK A01 T00721034  RH  047%=      5-min Rain = 0
KLO1 211136Z 15006KT 07/M03 A2983 RMK A01 T00721033  RH  047%=      5-min Rain = 0
KLO1 211137Z 16006KT 07/M03 A2983 RMK A01 T00721033  RH  047%=      5-min Rain = 0
KLO1 211138Z 15005KT 07/M03 A2983 RMK A01 T00711033  RH  047%=      5-min Rain = 0
KLO1 211139Z 15006KT 07/M03 A2983 RMK A01 T00711033  RH  047%=      5-min Rain = 0
KLO1 211140Z 14006KT 07/M03 A2983 RMK A01 T00711033  RH  047%=      5-min Rain = 0
KLO1 211141Z 14006KT 07/M03 A2983 RMK A01 T00711033  RH  047%=      5-min Rain = 0
KLO1 211142Z 14006KT 07/M03 A2983 RMK A01 T00711033  RH  047%=      5-min Rain = 0
KLO1 211143Z 14006KT 07/M03 A2983 RMK A01 T00711033  RH  048%=      5-min Rain = 0
KLO1 211144Z 14007KT 07/M03 A2983 RMK A01 T00711033  RH  048%=      5-min Rain = 0
KLO1 211145Z 14006KT 07/M03 A2983 RMK A01 T00711033  RH  048%=      5-min Rain = 0
KLO1 211146Z 14006KT 07/M03 A2983 RMK A01 T00711033  RH  048%=      5-min Rain = 0
KLO1 211147Z 13006KT 07/M03 A2983 RMK A01 T00711033  RH  048%=      5-min Rain = 0
KLO1 211148Z 14006KT 07/M03 A2983 RMK A01 T00711033  RH  048%=      5-min Rain = 0
KLO1 211149Z 14006KT 07/M03 A2983 RMK A01 T00701033  RH  048%=      5-min Rain = 0
KLO1 211150Z 15006KT 07/M03 A2983 RMK A01 T00701033  RH  048%=      5-min Rain = 0
KLO1 211151Z 15006KT 07/M03 A2984 RMK A01 T00701033  RH  048%=      5-min Rain = 0
KLO1 211152Z 15006KT 07/M03 A2984 RMK A01 T00701033  RH  048%=      5-min Rain = 0
KLO1 211153Z 15005KT 07/M03 A2984 RMK A01 T00701033  RH  048%=      5-min Rain = 0
KLO1 211154Z 15005KT 07/M03 A2984 RMK A01 T00701033  RH  048%=      5-min Rain = 0
KLO1 211155Z 15005KT 07/M03 A2984 RMK A01 T00701032  RH  048%=      5-min Rain = 0
KLO1 211156Z 16005KT 07/M03 A2984 RMK A01 T00701032  RH  048%=      5-min Rain = 0
KLO1 211157Z 16006KT 07/M03 A2984 RMK A01 T00711032  RH  048%=      5-min Rain = 0
KLO1 211158Z 15006KT 07/M03 A2984 RMK A01 T00721031  RH  048%=      5-min Rain = 0
KLO1 211159Z 15006KT 07/M03 A2984 RMK A01 T00721032  RH  048%=      5-min Rain = 0
KLO1 211200Z 15007KT 07/M03 A2984 RMK A01 T00721031  RH  048%=      5-min Rain = 0
KLO1 211201Z 15007KT 07/M03 A2983 RMK A01 T00721031  RH  048%=      5-min Rain = 0
KLO1 211202Z 15006KT 07/M03 A2983 RMK A01 T00721031  RH  048%=      5-min Rain = 0
KLO1 211203Z 14007KT 07/M03 A2983 RMK A01 T00731031  RH  048%=      5-min Rain = 0
KLO1 211204Z 14007KT 07/M03 A2982 RMK A01 T00731031  RH  048%=      5-min Rain = 0
KLO1 211205Z 14007KT 07/M03 A2983 RMK A01 T00731031  RH  048%=      5-min Rain = 0
KLO1 211206Z 14007KT 07/M03 A2983 RMK A01 T00731031  RH  048%=      5-min Rain = 0
KLO1 211207Z 15007KT 07/M03 A2983 RMK A01 T00731031  RH  047%=      5-min Rain = 0
KLO1 211208Z 15008KT 07/M03 A2983 RMK A01 T00731032  RH  047%=      5-min Rain = 0
KLO1 211209Z 15008KT 07/M03 A2984 RMK A01 T00741031  RH  047%=      5-min Rain = 0
KLO1 211210Z 16007KT 08/M03 A2984 RMK A01 T00751031  RH  047%=      5-min Rain = 0
KLO1 211211Z 15008KT 08/M03 A2984 RMK A01 T00751031  RH  047%=      5-min Rain = 0
KLO1 211212Z 15007KT 08/M03 A2984 RMK A01 T00751031  RH  047%=      5-min Rain = 0
KLO1 211213Z 16007KT 08/M03 A2984 RMK A01 T00751031  RH  047%=      5-min Rain = 0
KLO1 211214Z 15007KT 08/M03 A2984 RMK A01 T00751031  RH  047%=      5-min Rain = 0
KLO1 211215Z 15008KT 08/M03 A2984 RMK A01 T00761031  RH  047%=      5-min Rain = 0
KLO1 211216Z 15007KT 08/M03 A2984 RMK A01 T00751031  RH  047%=      5-min Rain = 0
KLO1 211217Z 15007KT 08/M03 A2984 RMK A01 T00751031  RH  047%=      5-min Rain = 0
KLO1 211218Z 15006KT 08/M03 A2984 RMK A01 T00761030  RH  047%=      5-min Rain = 0
KLO1 211219Z 15006KT 08/M03 A2984 RMK A01 T00761030  RH  047%=      5-min Rain = 0
KLO1 211220Z 15006KT 08/M03 A2984 RMK A01 T00751031  RH  047%=      5-min Rain = 0
KLO1 211221Z 15007KT 08/M03 A2984 RMK A01 T00751030  RH  047%=      5-min Rain = 0
KLO1 211222Z 14007KT 08/M03 A2984 RMK A01 T00751030  RH  047%=      5-min Rain = 0
KLO1 211223Z 14006KT 08/M03 A2984 RMK A01 T00751030  RH  047%=      5-min Rain = 0
KLO1 211224Z 14006KT 07/M03 A2984 RMK A01 T00741031  RH  047%=      5-min Rain = 0
KLO1 211225Z 14006KT 07/M03 A2984 RMK A01 T00731031  RH  047%=      5-min Rain = 0
KLO1 211226Z 14006KT 07/M03 A2984 RMK A01 T00721032  RH  048%=      5-min Rain = 0
KLO1 211227Z 14006KT 07/M03 A2984 RMK A01 T00721031  RH  048%=      5-min Rain = 0
KLO1 211228Z 15006KT 07/M03 A2984 RMK A01 T00711032  RH  048%=      5-min Rain = 0
KLO1 211229Z 15006KT 07/M03 A2984 RMK A01 T00711032  RH  048%=      5-min Rain = 0
KLO1 211230Z 15006KT 07/M03 A2984 RMK A01 T00711032  RH  048%=      5-min Rain = 0
KLO1 211231Z 16006KT 07/M03 A2985 RMK A01 T00711031  RH  048%=      5-min Rain = 0
KLO1 211232Z 16007KT 07/M03 A2985 RMK A01 T00721031  RH  048%=      5-min Rain = 0
KLO1 211233Z 17006KT 07/M03 A2985 RMK A01 T00731031  RH  048%=      5-min Rain = 0
KLO1 211234Z 17007KT 07/M03 A2985 RMK A01 T00731031  RH  048%=      5-min Rain = 0
KLO1 211235Z 17006KT 07/M03 A2985 RMK A01 T00731031  RH  048%=      5-min Rain = 0
KLO1 211236Z 17007KT 07/M03 A2985 RMK A01 T00731031  RH  048%=      5-min Rain = 0
KLO1 211237Z 17007KT 07/M03 A2985 RMK A01 T00731031  RH  048%=      5-min Rain = 0
KLO1 211238Z 17007KT 07/M03 A2985 RMK A01 T00741030  RH  048%=      5-min Rain = 0
KLO1 211239Z 17007KT 07/M03 A2985 RMK A01 T00741030  RH  048%=      5-min Rain = 0
KLO1 211240Z 17008KT 07/M03 A2985 RMK A01 T00741030  RH  048%=      5-min Rain = 0
KLO1 211241Z 17006KT 08/M03 A2985 RMK A01 T00751030  RH  047%=      5-min Rain = 0
KLO1 211242Z 17006KT 08/M03 A2985 RMK A01 T00751030  RH  047%=      5-min Rain = 0
KLO1 211243Z 17006KT 08/M03 A2985 RMK A01 T00751030  RH  047%=      5-min Rain = 0
KLO1 211244Z 17006KT 07/M03 A2985 RMK A01 T00741030  RH  047%=      5-min Rain = 0
KLO1 211245Z 17007KT 07/M03 A2985 RMK A01 T00741030  RH  048%=      5-min Rain = 0
KLO1 211246Z 17007KT 07/M03 A2985 RMK A01 T00741030  RH  048%=      5-min Rain = 0
KLO1 211247Z 18007KT 08/M03 A2985 RMK A01 T00751029  RH  047%=      5-min Rain = 0
KLO1 211248Z 18007KT 08/M03 A2986 RMK A01 T00751030  RH  047%=      5-min Rain = 0
KLO1 211249Z 18006KT 08/M03 A2985 RMK A01 T00771029  RH  047%=      5-min Rain = 0
KLO1 211250Z 17008KT 08/M03 A2985 RMK A01 T00771029  RH  047%=      5-min Rain = 0
KLO1 211251Z 17007KT 08/M03 A2985 RMK A01 T00771029  RH  047%=      5-min Rain = 0
KLO1 211252Z 17007KT 08/M03 A2985 RMK A01 T00771029  RH  047%=      5-min Rain = 0
KLO1 211253Z 17008KT 08/M03 A2985 RMK A01 T00771029  RH  047%=      5-min Rain = 0
KLO1 211254Z 17008KT 08/M03 A2985 RMK A01 T00771029  RH  047%=      5-min Rain = 0
KLO1 211255Z 16008KT 08/M03 A2985 RMK A01 T00771029  RH  047%=      5-min Rain = 0
KLO1 211256Z 17008KT 08/M03 A2985 RMK A01 T00771029  RH  047%=      5-min Rain = 0
KLO1 211257Z 16009KT 08/M03 A2985 RMK A01 T00761029  RH  047%=      5-min Rain = 0
KLO1 211258Z 16009KT 08/M03 A2984 RMK A01 T00761028  RH  047%=      5-min Rain = 0
KLO1 211259Z 16009KT 08/M03 A2984 RMK A01 T00771028  RH  047%=      5-min Rain = 0
KLO1 211300Z 16010KT 08/M03 A2984 RMK A01 T00771028  RH  047%=      5-min Rain = 0
KLO1 211301Z 15010KT 08/M03 A2984 RMK A01 T00781027  RH  047%=      5-min Rain = 0
KLO1 211302Z 15012KT 08/M03 A2984 RMK A01 T00781027  RH  047%=      5-min Rain = 0
KLO1 211303Z 15012KT 08/M03 A2984 RMK A01 T00791027  RH  047%=      5-min Rain = 0
KLO1 211304Z 15012KT 08/M03 A2983 RMK A01 T00791027  RH  047%=      5-min Rain = 0
KLO1 211305Z 15012KT 08/M03 A2983 RMK A01 T00791027  RH  047%=      5-min Rain = 0
KLO1 211306Z 14012KT 08/M03 A2983 RMK A01 T00791026  RH  047%=      5-min Rain = 0
KLO1 211307Z 14013KT 08/M03 A2983 RMK A01 T00781026  RH  048%=      5-min Rain = 0
KLO1 211308Z 15012KT 08/M03 A2983 RMK A01 T00781026  RH  048%=      5-min Rain = 0
KLO1 211309Z 15013KT 08/M03 A2983 RMK A01 T00781026  RH  048%=      5-min Rain = 0
KLO1 211310Z 15012KT 08/M03 A2983 RMK A01 T00791025  RH  048%=      5-min Rain = 0
KLO1 211311Z 15011KT 08/M03 A2983 RMK A01 T00801025  RH  048%=      5-min Rain = 0
KLO1 211312Z 15011KT 08/M03 A2983 RMK A01 T00801025  RH  048%=      5-min Rain = 0
KLO1 211313Z 14011KT 08/M03 A2983 RMK A01 T00801025  RH  047%=      5-min Rain = 0
KLO1 211314Z 15011KT 08/M03 A2983 RMK A01 T00801025  RH  047%=      5-min Rain = 0
KLO1 211315Z 15010KT 08/M03 A2983 RMK A01 T00801025  RH  048%=      5-min Rain = 0
KLO1 211316Z 15011KT 08/M03 A2983 RMK A01 T00801025  RH  047%=      5-min Rain = 0
KLO1 211317Z 15010KT 08/M02 A2983 RMK A01 T00811024  RH  047%=      5-min Rain = 0
KLO1 211318Z 15009KT 08/M02 A2983 RMK A01 T00811024  RH  047%=      5-min Rain = 0
KLO1 211319Z 15010KT 08/M02 A2983 RMK A01 T00811024  RH  047%=      5-min Rain = 0
KLO1 211320Z 15008KT 08/M02 A2983 RMK A01 T00811024  RH  047%=      5-min Rain = 0
KLO1 211321Z 16008KT 08/M02 A2983 RMK A01 T00811024  RH  048%=      5-min Rain = 0
KLO1 211322Z 16007KT 08/M02 A2984 RMK A01 T00811024  RH  048%=      5-min Rain = 0
KLO1 211323Z 16008KT 08/M02 A2984 RMK A01 T00811024  RH  048%=      5-min Rain = 0
KLO1 211324Z 17009KT 08/M02 A2984 RMK A01 T00801024  RH  048%=      5-min Rain = 0
KLO1 211325Z 18008KT 08/M02 A2985 RMK A01 T00811023  RH  048%=      5-min Rain = 0
KLO1 211326Z 18008KT 08/M02 A2985 RMK A01 T00811023  RH  048%=      5-min Rain = 0
KLO1 211327Z 18008KT 08/M02 A2985 RMK A01 T00811023  RH  048%=      5-min Rain = 0
KLO1 211328Z 18008KT 08/M02 A2985 RMK A01 T00811023  RH  048%=      5-min Rain = 0
KLO1 211329Z 17009KT 08/M02 A2985 RMK A01 T00811023  RH  048%=      5-min Rain = 0
KLO1 211330Z 16009KT 08/M02 A2985 RMK A01 T00801023  RH  048%=      5-min Rain = 0
KLO1 211331Z 16009KT 08/M02 A2985 RMK A01 T00801023  RH  048%=      5-min Rain = 0
KLO1 211332Z 15010KT 08/M02 A2984 RMK A01 T00801022  RH  048%=      5-min Rain = 0
KLO1 211333Z 15010KT 08/M02 A2984 RMK A01 T00801022  RH  048%=      5-min Rain = 0
KLO1 211334Z 14010KT 08/M02 A2984 RMK A01 T00811022  RH  048%=      5-min Rain = 0
KLO1 211335Z 14010KT 08/M02 A2984 RMK A01 T00801022  RH  048%=      5-min Rain = 0
KLO1 211336Z 14010KT 08/M02 A2983 RMK A01 T00801022  RH  049%=      5-min Rain = 0
KLO1 211337Z 15010KT 08/M02 A2984 RMK A01 T00801022  RH  049%=      5-min Rain = 0
KLO1 211338Z 15010KT 08/M02 A2984 RMK A01 T00801021  RH  049%=      5-min Rain = 0
KLO1 211339Z 15010KT 08/M02 A2984 RMK A01 T00811021  RH  049%=      5-min Rain = 0
KLO1 211340Z 15010KT 08/M02 A2984 RMK A01 T00801021  RH  049%=      5-min Rain = 0
KLO1 211341Z 15011KT 08/M02 A2984 RMK A01 T00811021  RH  049%=      5-min Rain = 0
KLO1 211342Z 15010KT 08/M02 A2984 RMK A01 T00811020  RH  049%=      5-min Rain = 0
KLO1 211343Z 15012KT 08/M02 A2984 RMK A01 T00801021  RH  049%=      5-min Rain = 0
KLO1 211344Z 15011KT 08/M02 A2984 RMK A01 T00801021  RH  049%=      5-min Rain = 0
KLO1 211345Z 15012KT 08/M02 A2984 RMK A01 T00801020  RH  049%=      5-min Rain = 0
KLO1 211346Z 15011KT 08/M02 A2984 RMK A01 T00801020  RH  049%=      5-min Rain = 0
KLO1 211347Z 15012KT 08/M02 A2984 RMK A01 T00791021  RH  049%=      5-min Rain = 0
KLO1 211348Z 15012KT 08/M02 A2984 RMK A01 T00791020  RH  049%=      5-min Rain = 0
KLO1 211349Z 15011KT 08/M02 A2984 RMK A01 T00791020  RH  049%=      5-min Rain = 0
KLO1 211350Z 15011KT 08/M02 A2984 RMK A01 T00791020  RH  049%=      5-min Rain = 0
KLO1 211351Z 15011KT 08/M02 A2984 RMK A01 T00781020  RH  050%=      5-min Rain = 0
KLO1 211352Z 15010KT 08/M02 A2984 RMK A01 T00781020  RH  050%=      5-min Rain = 0
KLO1 211353Z 15009KT 08/M02 A2984 RMK A01 T00781020  RH  050%=      5-min Rain = 0
KLO1 211354Z 15011KT 08/M02 A2984 RMK A01 T00771020  RH  050%=      5-min Rain = 0
KLO1 211355Z 14009KT 08/M02 A2984 RMK A01 T00771020  RH  050%=      5-min Rain = 0
KLO1 211356Z 14010KT 08/M02 A2984 RMK A01 T00771019  RH  050%=      5-min Rain = 0
KLO1 211357Z 14010KT 08/M02 A2984 RMK A01 T00771019  RH  051%=      5-min Rain = 0
KLO1 211358Z 14010KT 08/M02 A2984 RMK A01 T00771019  RH  051%=      5-min Rain = 0
KLO1 211359Z 14010KT 08/M02 A2984 RMK A01 T00771019  RH  051%=      5-min Rain = 0
KLO1 211400Z 14010KT 08/M02 A2984 RMK A01 T00761019  RH  051%=      5-min Rain = 0
KLO1 211401Z 14009KT 08/M02 A2984 RMK A01 T00761019  RH  051%=      5-min Rain = 0
KLO1 211402Z 14011KT 08/M02 A2984 RMK A01 T00761019  RH  051%=      5-min Rain = 0
KLO1 211403Z 13011KT 08/M02 A2984 RMK A01 T00761019  RH  051%=      5-min Rain = 0
KLO1 211404Z 13011KT 08/M02 A2983 RMK A01 T00761019  RH  051%=      5-min Rain = 0
KLO1 211405Z 13012KT 08/M02 A2983 RMK A01 T00761019  RH  051%=      5-min Rain = 0
KLO1 211406Z 13012KT 08/M02 A2983 RMK A01 T00761019  RH  051%=      5-min Rain = 0
KLO1 211407Z 14012KT 08/M02 A2983 RMK A01 T00761019  RH  051%=      5-min Rain = 0
KLO1 211408Z 13011KT 08/M02 A2983 RMK A01 T00771018  RH  051%=      5-min Rain = 0
KLO1 211409Z 13011KT 08/M02 A2983 RMK A01 T00771018  RH  051%=      5-min Rain = 0
KLO1 211410Z 14010KT 08/M02 A2984 RMK A01 T00781018  RH  051%=      5-min Rain = 0
KLO1 211411Z 15008KT 08/M02 A2985 RMK A01 T00781018  RH  051%=      5-min Rain = 0
KLO1 211412Z 17008KT 08/M02 A2985 RMK A01 T00791017  RH  050%=      5-min Rain = 0
KLO1 211413Z 17007KT 08/M02 A2986 RMK A01 T00801017  RH  050%=      5-min Rain = 0
KLO1 211414Z 17007KT 08/M02 A2985 RMK A01 T00801017  RH  050%=      5-min Rain = 0
KLO1 211415Z 15007KT 08/M02 A2985 RMK A01 T00801017  RH  050%=      5-min Rain = 0
KLO1 211416Z 14008KT 08/M02 A2984 RMK A01 T00801016  RH  051%=      5-min Rain = 0
KLO1 211417Z 13008KT 08/M02 A2984 RMK A01 T00801016  RH  051%=      5-min Rain = 0
KLO1 211418Z 13009KT 08/M02 A2984 RMK A01 T00801016  RH  051%=      5-min Rain = 0
KLO1 211419Z 13009KT 08/M02 A2984 RMK A01 T00801016  RH  051%=      5-min Rain = 0
KLO1 211420Z 13009KT 08/M02 A2984 RMK A01 T00801016  RH  051%=      5-min Rain = 0
KLO1 211421Z 14009KT 08/M02 A2984 RMK A01 T00801016  RH  051%=      5-min Rain = 0
KLO1 211422Z 14009KT 08/M02 A2984 RMK A01 T00801016  RH  051%=      5-min Rain = 0
KLO1 211423Z 14009KT 08/M02 A2984 RMK A01 T00801016  RH  051%=      5-min Rain = 0
KLO1 211424Z 14008KT 08/M02 A2984 RMK A01 T00801016  RH  051%=      5-min Rain = 0
KLO1 211425Z 15009KT 08/M02 A2985 RMK A01 T00801016  RH  051%=      5-min Rain = 0
KLO1 211426Z 15008KT 08/M02 A2985 RMK A01 T00811016  RH  051%=      5-min Rain = 0
KLO1 211427Z 15007KT 08/M02 A2985 RMK A01 T00811016  RH  051%=      5-min Rain = 0
KLO1 211428Z 15007KT 08/M02 A2985 RMK A01 T00811015  RH  051%=      5-min Rain = 0
KLO1 211429Z 15006KT 08/M02 A2985 RMK A01 T00811015  RH  051%=      5-min Rain = 0
KLO1 211430Z 15007KT 08/M02 A2985 RMK A01 T00811015  RH  051%=      5-min Rain = 0
KLO1 211431Z 15006KT 08/M02 A2985 RMK A01 T00811015  RH  051%=      5-min Rain = 0
KLO1 211432Z 15007KT 08/M01 A2985 RMK A01 T00821014  RH  051%=      5-min Rain = 0
KLO1 211433Z 14008KT 08/M01 A2985 RMK A01 T00821014  RH  051%=      5-min Rain = 0
KLO1 211434Z 14008KT 08/M01 A2985 RMK A01 T00821014  RH  051%=      5-min Rain = 0
KLO1 211435Z 14010KT 08/M01 A2985 RMK A01 T00821013  RH  051%=      5-min Rain = 0
KLO1 211436Z 14010KT 08/M01 A2985 RMK A01 T00831014  RH  051%=      5-min Rain = 0
KLO1 211437Z 15009KT 08/M01 A2985 RMK A01 T00831014  RH  051%=      5-min Rain = 0
KLO1 211438Z 15010KT 08/M01 A2985 RMK A01 T00831014  RH  050%=      5-min Rain = 0
KLO1 211439Z 15008KT 08/M01 A2986 RMK A01 T00831014  RH  050%=      5-min Rain = 0
KLO1 211440Z 15009KT 08/M01 A2986 RMK A01 T00841013  RH  051%=      5-min Rain = 0
KLO1 211441Z 15009KT 08/M01 A2986 RMK A01 T00841013  RH  051%=      5-min Rain = 0
KLO1 211442Z 15009KT 08/M01 A2986 RMK A01 T00841013  RH  051%=      5-min Rain = 0
KLO1 211443Z 15009KT 09/M01 A2986 RMK A01 T00851012  RH  051%=      5-min Rain = 0
KLO1 211444Z 16010KT 09/M01 A2986 RMK A01 T00851012  RH  051%=      5-min Rain = 0
KLO1 211445Z 15012KT 09/M01 A2986 RMK A01 T00851012  RH  051%=      5-min Rain = 0
KLO1 211446Z 15010KT 09/M01 A2986 RMK A01 T00861012  RH  050%=      5-min Rain = 0
KLO1 211447Z 15010KT 09/M01 A2986 RMK A01 T00861011  RH  050%=      5-min Rain = 0
KLO1 211448Z 15012KT 09/M01 A2986 RMK A01 T00861011  RH  050%=      5-min Rain = 0
KLO1 211449Z 15014KT 09/M01 A2986 RMK A01 T00871012  RH  050%=      5-min Rain = 0
KLO1 211450Z 15011KT 09/M01 A2986 RMK A01 T00881012  RH  050%=      5-min Rain = 0
KLO1 211451Z 15012KT 09/M01 A2986 RMK A01 T00881011  RH  050%=      5-min Rain = 0
KLO1 211452Z 15012KT 09/M01 A2986 RMK A01 T00891011  RH  050%=      5-min Rain = 0
KLO1 211453Z 15013KT 09/M01 A2986 RMK A01 T00891011  RH  050%=      5-min Rain = 0
KLO1 211454Z 15014KT 09/M01 A2986 RMK A01 T00891011  RH  049%=      5-min Rain = 0
KLO1 211455Z 15012KT 09/M01 A2986 RMK A01 T00901011  RH  049%=      5-min Rain = 0
KLO1 211456Z 15012KT 09/M01 A2986 RMK A01 T00901011  RH  049%=      5-min Rain = 0
KLO1 211457Z 15012KT 09/M01 A2985 RMK A01 T00901011  RH  049%=      5-min Rain = 0
KLO1 211458Z 14013KT 09/M01 A2985 RMK A01 T00901011  RH  049%=      5-min Rain = 0
KLO1 211459Z 15013KT 09/M01 A2985 RMK A01 T00901012  RH  049%=      5-min Rain = 0
KLO1 211500Z 15011KT 09/M01 A2985 RMK A01 T00901011  RH  049%=      5-min Rain = 0
KLO1 211501Z 15012KT 09/M01 A2985 RMK A01 T00911010  RH  049%=      5-min Rain = 0
KLO1 211502Z 14013KT 09/M01 A2985 RMK A01 T00911011  RH  049%=      5-min Rain = 0
KLO1 211503Z 14014KT 09/M01 A2985 RMK A01 T00911011  RH  049%=      5-min Rain = 0
KLO1 211504Z 14014KT 09/M01 A2985 RMK A01 T00911011  RH  049%=      5-min Rain = 0
KLO1 211505Z 14015KT 09/M01 A2985 RMK A01 T00911011  RH  049%=      5-min Rain = 0
KLO1 211506Z 14015KT 09/M01 A2984 RMK A01 T00911011  RH  049%=      5-min Rain = 0
KLO1 211507Z 14014KT 09/M01 A2984 RMK A01 T00911010  RH  049%=      5-min Rain = 0
KLO1 211508Z 14015KT 09/M01 A2984 RMK A01 T00911010  RH  049%=      5-min Rain = 0
KLO1 211509Z 15015KT 09/M01 A2984 RMK A01 T00921010  RH  049%=      5-min Rain = 0
KLO1 211510Z 14015KT 09/M01 A2984 RMK A01 T00921010  RH  049%=      5-min Rain = 0
KLO1 211511Z 14016KT 09/M01 A2984 RMK A01 T00921010  RH  049%=      5-min Rain = 0
KLO1 211512Z 14017KT 09/M01 A2984 RMK A01 T00921010  RH  049%=      5-min Rain = 0
KLO1 211513Z 14019KT 09/M01 A2983 RMK A01 T00931010  RH  049%=      5-min Rain = 0
KLO1 211514Z 14018KT 09/M01 A2983 RMK A01 T00931010  RH  048%=      5-min Rain = 0
KLO1 211515Z 14015G20KT 09/M01 A2983 RMK A01 T00931010  RH  049%=      5-min Rain = 0
KLO1 211516Z 15015KT 09/M01 A2984 RMK A01 T00931010  RH  049%=      5-min Rain = 0
KLO1 211517Z 15009KT 09/M01 A2985 RMK A01 T00941010  RH  048%=      5-min Rain = 0
KLO1 211518Z 18011KT 09/M01 A2986 RMK A01 T00941009  RH  049%=      5-min Rain = 0
KLO1 211519Z 18007KT 09/M01 A2986 RMK A01 T00941009  RH  048%=      5-min Rain = 0
KLO1 211520Z 17008KT 10/M01 A2986 RMK A01 T00951008  RH  049%=      5-min Rain = 0
KLO1 211521Z 16010KT 10/M01 A2986 RMK A01 T00951009  RH  048%=      5-min Rain = 0
KLO1 211522Z 17009KT 10/M01 A2986 RMK A01 T00951008  RH  048%=      5-min Rain = 0
KLO1 211523Z 16010KT 10/M01 A2987 RMK A01 T00951008  RH  048%=      5-min Rain = 0
KLO1 211524Z 15011KT 10/M01 A2986 RMK A01 T00961008  RH  048%=      5-min Rain = 0
KLO1 211525Z 15010G15KT 10/M01 A2985 RMK A01 T00961008  RH  048%=      5-min Rain = 0
KLO1 211526Z 15014KT 10/M01 A2985 RMK A01 T00961008  RH  048%=      5-min Rain = 0
KLO1 211527Z 15013KT 10/M01 A2985 RMK A01 T00961008  RH  048%=      5-min Rain = 0
KLO1 211528Z 15013KT 10/M01 A2985 RMK A01 T00961008  RH  048%=      5-min Rain = 0
KLO1 211529Z 16014KT 10/M01 A2986 RMK A01 T00971008  RH  048%=      5-min Rain = 0
KLO1 211530Z 16016KT 10/M01 A2986 RMK A01 T00971009  RH  048%=      5-min Rain = 0
KLO1 211531Z 16013KT 10/M01 A2986 RMK A01 T00971009  RH  048%=      5-min Rain = 0
KLO1 211532Z 16014KT 10/M01 A2986 RMK A01 T00971007  RH  048%=      5-min Rain = 0
KLO1 211533Z 16014KT 10/M01 A2986 RMK A01 T00981007  RH  048%=      5-min Rain = 0
KLO1 211534Z 16015KT 10/M01 A2986 RMK A01 T00981008  RH  048%=      5-min Rain = 0
KLO1 211535Z 16015KT 10/M01 A2986 RMK A01 T00981008  RH  048%=      5-min Rain = 0
KLO1 211536Z 16013KT 10/M01 A2986 RMK A01 T00991008  RH  048%=      5-min Rain = 0
KLO1 211537Z 16013KT 10/M01 A2986 RMK A01 T00991006  RH  048%=      5-min Rain = 0
KLO1 211538Z 16012KT 10/M01 A2987 RMK A01 T01001006  RH  048%=      5-min Rain = 0
KLO1 211539Z 16014G20KT 10/M01 A2987 RMK A01 T01001005  RH  048%=      5-min Rain = 0
KLO1 211540Z 16013G19KT 10/M01 A2987 RMK A01 T01011007  RH  047%=      5-min Rain = 0
KLO1 211541Z 16013KT 10/M01 A2987 RMK A01 T01011007  RH  047%=      5-min Rain = 0
KLO1 211542Z 18013KT 10/M01 A2987 RMK A01 T01011007  RH  047%=      5-min Rain = 0
KLO1 211543Z 18013KT 10/M01 A2988 RMK A01 T01011007  RH  047%=      5-min Rain = 0
KLO1 211544Z 17014KT 10/M01 A2988 RMK A01 T01021007  RH  047%=      5-min Rain = 0
KLO1 211545Z 17011KT 10/M01 A2988 RMK A01 T01021007  RH  047%=      5-min Rain = 0
KLO1 211546Z 17013KT 10/M01 A2988 RMK A01 T01021007  RH  047%=      5-min Rain = 0
KLO1 211547Z 17011KT 10/M01 A2988 RMK A01 T01021008  RH  046%=      5-min Rain = 0
KLO1 211548Z 17013KT 10/M01 A2988 RMK A01 T01021007  RH  047%=      5-min Rain = 0
KLO1 211549Z 18014KT 10/M01 A2988 RMK A01 T01031007  RH  046%=      5-min Rain = 0
KLO1 211550Z 18015KT 10/M01 A2988 RMK A01 T01031008  RH  046%=      5-min Rain = 0
KLO1 211551Z 17012KT 10/M01 A2988 RMK A01 T01031008  RH  046%=      5-min Rain = 0
KLO1 211552Z 18011KT 10/M01 A2988 RMK A01 T01041008  RH  046%=      5-min Rain = 0
KLO1 211553Z 18015KT 10/M01 A2988 RMK A01 T01041007  RH  046%=      5-min Rain = 0
KLO1 211554Z 17012KT 10/M01 A2988 RMK A01 T01041008  RH  046%=      5-min Rain = 0
KLO1 211555Z 17010KT 10/M01 A2988 RMK A01 T01041008  RH  046%=      5-min Rain = 0
KLO1 211556Z 17012G17KT 10/M01 A2988 RMK A01 T01041008  RH  046%=      5-min Rain = 0
KLO1 211557Z 17011KT 11/M01 A2988 RMK A01 T01051007  RH  046%=      5-min Rain = 0
KLO1 211558Z 17010KT 11/M01 A2988 RMK A01 T01051007  RH  046%=      5-min Rain = 0
KLO1 211559Z 17010KT 11/M01 A2988 RMK A01 T01061006  RH  046%=      5-min Rain = 0
KLO1 211600Z 17011KT 11/M01 A2988 RMK A01 T01061006  RH  046%=      5-min Rain = 0
KLO1 211601Z 17013KT 11/M01 A2988 RMK A01 T01061008  RH  045%=      5-min Rain = 0
KLO1 211602Z 17013KT 11/M01 A2988 RMK A01 T01061008  RH  045%=      5-min Rain = 0
KLO1 211603Z 17013KT 11/M01 A2988 RMK A01 T01061008  RH  045%=      5-min Rain = 0
KLO1 211604Z 17015KT 11/M01 A2988 RMK A01 T01061008  RH  045%=      5-min Rain = 0
KLO1 211605Z 17015KT 11/M01 A2988 RMK A01 T01071008  RH  045%=      5-min Rain = 0
KLO1 211606Z 17014KT 11/M01 A2988 RMK A01 T01071007  RH  045%=      5-min Rain = 0
KLO1 211607Z 17017KT 11/M01 A2988 RMK A01 T01071008  RH  045%=      5-min Rain = 0
KLO1 211608Z 17014KT 11/M01 A2988 RMK A01 T01071009  RH  045%=      5-min Rain = 0
KLO1 211609Z 17017KT 11/M01 A2988 RMK A01 T01071008  RH  045%=      5-min Rain = 0
KLO1 211610Z 17016KT 11/M01 A2988 RMK A01 T01071008  RH  045%=      5-min Rain = 0
KLO1 211611Z 17017KT 11/M01 A2988 RMK A01 T01071009  RH  045%=      5-min Rain = 0
KLO1 211612Z 17016KT 11/M01 A2988 RMK A01 T01071008  RH  045%=      5-min Rain = 0
KLO1 211613Z 17015KT 11/M01 A2988 RMK A01 T01071008  RH  045%=      5-min Rain = 0
KLO1 211614Z 17014KT 11/M01 A2988 RMK A01 T01071008  RH  045%=      5-min Rain = 0
KLO1 211615Z 16014KT 11/M01 A2988 RMK A01 T01081008  RH  045%=      5-min Rain = 0
KLO1 211616Z 16017KT 11/M01 A2988 RMK A01 T01081007  RH  045%=      5-min Rain = 0
KLO1 211617Z 17016KT 11/M01 A2988 RMK A01 T01081008  RH  044%=      5-min Rain = 0
KLO1 211618Z 17018KT 11/M01 A2988 RMK A01 T01081008  RH  045%=      5-min Rain = 0
KLO1 211619Z 17016KT 11/M01 A2988 RMK A01 T01081009  RH  044%=      5-min Rain = 0
KLO1 211620Z 17015KT 11/M01 A2988 RMK A01 T01081008  RH  044%=      5-min Rain = 0
KLO1 211621Z 17016KT 11/M01 A2988 RMK A01 T01091007  RH  045%=      5-min Rain = 0
KLO1 211622Z 17016KT 11/M01 A2988 RMK A01 T01091007  RH  045%=      5-min Rain = 0
KLO1 211623Z 17017KT 11/M01 A2988 RMK A01 T01091008  RH  044%=      5-min Rain = 0
KLO1 211624Z 17018KT 11/M01 A2988 RMK A01 T01101008  RH  044%=      5-min Rain = 0
KLO1 211625Z 17016KT 11/M01 A2988 RMK A01 T01091008  RH  044%=      5-min Rain = 0
KLO1 211626Z 17015KT 11/M01 A2988 RMK A01 T01101007  RH  044%=      5-min Rain = 0
KLO1 211627Z 17016KT 11/M01 A2988 RMK A01 T01101007  RH  044%=      5-min Rain = 0
KLO1 211628Z 17014KT 11/M01 A2988 RMK A01 T01111006  RH  044%=      5-min Rain = 0
KLO1 211629Z 16016KT 11/M01 A2988 RMK A01 T01111005  RH  044%=      5-min Rain = 0
KLO1 211630Z 16014KT 11/M01 A2988 RMK A01 T01121005  RH  044%=      5-min Rain = 0
KLO1 211631Z 16014KT 11/M01 A2988 RMK A01 T01131005  RH  044%=      5-min Rain = 0
KLO1 211632Z 17014KT 11/M01 A2988 RMK A01 T01121005  RH  044%=      5-min Rain = 0
KLO1 211633Z 17014KT 11/M01 A2988 RMK A01 T01131005  RH  044%=      5-min Rain = 0
KLO1 211634Z 17014KT 11/M01 A2988 RMK A01 T01131005  RH  044%=      5-min Rain = 0
KLO1 211635Z 16015KT 11/M01 A2988 RMK A01 T01131006  RH  044%=      5-min Rain = 0
KLO1 211636Z 16016KT 11/M01 A2988 RMK A01 T01131005  RH  044%=      5-min Rain = 0
KLO1 211637Z 17015KT 11/M01 A2988 RMK A01 T01131005  RH  044%=      5-min Rain = 0
KLO1 211638Z 17013KT 11/M01 A2988 RMK A01 T01131006  RH  044%=      5-min Rain = 0
KLO1 211639Z 17013KT 11/M00 A2988 RMK A01 T01141004  RH  044%=      5-min Rain = 0
KLO1 211640Z 17014KT 11/M00 A2988 RMK A01 T01141004  RH  044%=      5-min Rain = 0
KLO1 211641Z 16015KT 11/M00 A2988 RMK A01 T01141004  RH  044%=      5-min Rain = 0
KLO1 211642Z 17015KT 12/M01 A2988 RMK A01 T01151005  RH  044%=      5-min Rain = 0
KLO1 211643Z 17015KT 12/M01 A2988 RMK A01 T01151005  RH  044%=      5-min Rain = 0
KLO1 211644Z 16013KT 12/M00 A2988 RMK A01 T01151004  RH  044%=      5-min Rain = 0
KLO1 211645Z 17016KT 12/M00 A2988 RMK A01 T01181001  RH  044%=      5-min Rain = 0
KLO1 211646Z 17015KT 12/M00 A2988 RMK A01 T01181003  RH  043%=      5-min Rain = 0
KLO1 211647Z 17012KT 12/M00 A2988 RMK A01 T01181002  RH  044%=      5-min Rain = 0
KLO1 211648Z 16014KT 12/00 A2988 RMK A01 T01200000  RH  044%=      5-min Rain = 0
KLO1 211649Z 17017KT 12/M00 A2988 RMK A01 T01211002  RH  043%=      5-min Rain = 0
KLO1 211650Z 17016KT 12/M00 A2988 RMK A01 T01201003  RH  043%=      5-min Rain = 0
KLO1 211651Z 17017KT 12/M00 A2988 RMK A01 T01211002  RH  043%=      5-min Rain = 0
KLO1 211652Z 17016KT 12/M00 A2988 RMK A01 T01201004  RH  042%=      5-min Rain = 0
KLO1 211653Z 17016KT 12/M00 A2988 RMK A01 T01191003  RH  043%=      5-min Rain = 0
KLO1 211654Z 17014KT 12/M00 A2988 RMK A01 T01191003  RH  043%=      5-min Rain = 0
KLO1 211655Z 16016KT 12/M00 A2988 RMK A01 T01201001  RH  043%=      5-min Rain = 0
KLO1 211656Z 16015KT 12/M00 A2988 RMK A01 T01221001  RH  043%=      5-min Rain = 0
KLO1 211657Z 16017KT 12/00 A2988 RMK A01 T012200-0  RH  043%=      5-min Rain = 0
KLO1 211658Z 16015KT 12/M00 A2988 RMK A01 T01231001  RH  043%=      5-min Rain = 0
KLO1 211659Z 16016KT 12/00 A2988 RMK A01 T01240000  RH  043%=      5-min Rain = 0
KLO1 211700Z 17015KT 12/00 A2988 RMK A01 T012400-0  RH  042%=      5-min Rain = 0
KLO1 211701Z 17016KT 13/M00 A2988 RMK A01 T01251001  RH  042%=      5-min Rain = 0
KLO1 211702Z 16016KT 13/M00 A2988 RMK A01 T01251001  RH  042%=      5-min Rain = 0
KLO1 211703Z 16017KT 13/00 A2988 RMK A01 T012600-0  RH  042%=      5-min Rain = 0
KLO1 211704Z 16017KT 13/M00 A2987 RMK A01 T01271001  RH  042%=      5-min Rain = 0
KLO1 211705Z 16015KT 13/M00 A2987 RMK A01 T01271001  RH  041%=      5-min Rain = 0
KLO1 211706Z 17018KT 13/M00 A2987 RMK A01 T01271001  RH  041%=      5-min Rain = 0
KLO1 211707Z 16017KT 13/M00 A2987 RMK A01 T01271001  RH  042%=      5-min Rain = 0
KLO1 211708Z 16019KT 13/M00 A2987 RMK A01 T01261002  RH  041%=      5-min Rain = 0
KLO1 211709Z 16018KT 13/M00 A2987 RMK A01 T01251002  RH  042%=      5-min Rain = 0
KLO1 211710Z 16017KT 13/M00 A2987 RMK A01 T01251002  RH  042%=      5-min Rain = 0
KLO1 211711Z 16016KT 12/M00 A2987 RMK A01 T01241002  RH  042%=      5-min Rain = 0
KLO1 211712Z 16018KT 12/M00 A2987 RMK A01 T01231002  RH  042%=      5-min Rain = 0
KLO1 211713Z 16018KT 12/M00 A2987 RMK A01 T01231002  RH  042%=      5-min Rain = 0
KLO1 211714Z 16017KT 12/M00 A2987 RMK A01 T01231003  RH  042%=      5-min Rain = 0
KLO1 211715Z 16015KT 12/M00 A2987 RMK A01 T01231002  RH  042%=      5-min Rain = 0
KLO1 211716Z 16013KT 13/00 A2987 RMK A01 T012500-0  RH  042%=      5-min Rain = 0
KLO1 211717Z 15016KT 13/00 A2987 RMK A01 T01260002  RH  042%=      5-min Rain = 0
KLO1 211718Z 16016KT 13/00 A2987 RMK A01 T01270000  RH  042%=      5-min Rain = 0
KLO1 211719Z 15018KT 13/00 A2987 RMK A01 T01270000  RH  042%=      5-min Rain = 0
KLO1 211720Z 16016KT 13/00 A2987 RMK A01 T01280000  RH  041%=      5-min Rain = 0
KLO1 211721Z 16016KT 13/00 A2987 RMK A01 T012800-0  RH  041%=      5-min Rain = 0
KLO1 211722Z 16015KT 13/00 A2987 RMK A01 T01280000  RH  042%=      5-min Rain = 0
KLO1 211723Z 16014KT 13/00 A2987 RMK A01 T01290002  RH  042%=      5-min Rain = 0
KLO1 211724Z 16014G19KT 13/00 A2987 RMK A01 T01300001  RH  041%=      5-min Rain = 0
KLO1 211725Z 15015KT 13/00 A2987 RMK A01 T01300002  RH  041%=      5-min Rain = 0
KLO1 211726Z 15015KT 13/00 A2986 RMK A01 T01300001  RH  041%=      5-min Rain = 0
KLO1 211727Z 16017G22KT 13/00 A2986 RMK A01 T01310001  RH  041%=      5-min Rain = 0
KLO1 211728Z 15018KT 13/M00 A2986 RMK A01 T01301001  RH  041%=      5-min Rain = 0
KLO1 211729Z 15016KT 13/M00 A2986 RMK A01 T01281001  RH  041%=      5-min Rain = 0
KLO1 211730Z 15016KT 13/00 A2986 RMK A01 T01300002  RH  041%=      5-min Rain = 0
KLO1 211731Z 17018KT 13/00 A2986 RMK A01 T01330003  RH  041%=      5-min Rain = 0
KLO1 211732Z 16020KT 14/00 A2986 RMK A01 T01360001  RH  039%=      5-min Rain = 0
KLO1 211733Z 17020KT 14/M00 A2986 RMK A01 T01351002  RH  039%=      5-min Rain = 0
KLO1 211734Z 16018KT 13/00 A2986 RMK A01 T013400-0  RH  040%=      5-min Rain = 0
KLO1 211735Z 16016KT 14/00 A2986 RMK A01 T01350001  RH  040%=      5-min Rain = 0
KLO1 211736Z 16016KT 14/00 A2986 RMK A01 T01360002  RH  040%=      5-min Rain = 0
KLO1 211737Z 16015KT 14/00 A2986 RMK A01 T01360002  RH  040%=      5-min Rain = 0
KLO1 211738Z 16014KT 14/00 A2986 RMK A01 T01370004  RH  040%=      5-min Rain = 0
KLO1 211739Z 16019KT 14/00 A2986 RMK A01 T01380003  RH  040%=      5-min Rain = 0
KLO1 211740Z 17018KT 14/00 A2986 RMK A01 T01380001  RH  039%=      5-min Rain = 0
KLO1 211741Z 17017KT 14/00 A2986 RMK A01 T013800-0  RH  039%=      5-min Rain = 0
KLO1 211742Z 16017KT 14/00 A2986 RMK A01 T01370001  RH  039%=      5-min Rain = 0
KLO1 211743Z 15017KT 14/01 A2985 RMK A01 T01410005  RH  039%=      5-min Rain = 0
KLO1 211744Z 15020KT 14/00 A2985 RMK A01 T01440003  RH  038%=      5-min Rain = 0
KLO1 211745Z 17022KT 14/00 A2985 RMK A01 T01430001  RH  038%=      5-min Rain = 0
KLO1 211746Z 17020G25KT 14/M00 A2985 RMK A01 T01401002  RH  038%=      5-min Rain = 0
KLO1 211747Z 17021KT 14/M00 A2985 RMK A01 T01391001  RH  038%=      5-min Rain = 0
KLO1 211748Z 16016KT 14/00 A2985 RMK A01 T01380000  RH  039%=      5-min Rain = 0
KLO1 211749Z 15018KT 14/00 A2985 RMK A01 T01390004  RH  040%=      5-min Rain = 0
KLO1 211750Z 15019KT 14/00 A2985 RMK A01 T01390003  RH  039%=      5-min Rain = 0
KLO1 211751Z 15018KT 14/00 A2985 RMK A01 T01380002  RH  039%=      5-min Rain = 0
KLO1 211752Z 15019KT 14/00 A2985 RMK A01 T01390003  RH  040%=      5-min Rain = 0
KLO1 211753Z 15019KT 14/00 A2985 RMK A01 T01410003  RH  039%=      5-min Rain = 0
KLO1 211754Z 15021KT 14/00 A2984 RMK A01 T01420004  RH  039%=      5-min Rain = 0
KLO1 211755Z 16017G23KT 14/00 A2984 RMK A01 T01420003  RH  039%=      5-min Rain = 0
KLO1 211756Z 15018KT 14/01 A2984 RMK A01 T01430006  RH  039%=      5-min Rain = 0
KLO1 211757Z 15021KT 15/01 A2984 RMK A01 T01460005  RH  038%=      5-min Rain = 0
KLO1 211758Z 15021KT 15/00 A2984 RMK A01 T01460003  RH  038%=      5-min Rain = 0
KLO1 211759Z 15022KT 14/00 A2984 RMK A01 T01430002  RH  038%=      5-min Rain = 0
KLO1 211800Z 16019KT 14/00 A2984 RMK A01 T01430001  RH  038%=      5-min Rain = 0
KLO1 211801Z 16019KT 14/00 A2984 RMK A01 T01420001  RH  038%=      5-min Rain = 0
KLO1 211802Z 15022KT 14/00 A2984 RMK A01 T01410003  RH  039%=      5-min Rain = 0
KLO1 211803Z 15020KT 14/00 A2984 RMK A01 T01410002  RH  039%=      5-min Rain = 0
KLO1 211804Z 15020KT 14/00 A2984 RMK A01 T01390002  RH  039%=      5-min Rain = 0
KLO1 211805Z 15022KT 14/00 A2984 RMK A01 T01390002  RH  039%=      5-min Rain = 0
KLO1 211806Z 16019KT 14/00 A2984 RMK A01 T01400003  RH  039%=      5-min Rain = 0
KLO1 211807Z 15019KT 14/01 A2984 RMK A01 T01430005  RH  039%=      5-min Rain = 0
KLO1 211808Z 16017G22KT 14/01 A2984 RMK A01 T01440005  RH  039%=      5-min Rain = 0
KLO1 211809Z 15020KT 15/01 A2984 RMK A01 T01480007  RH  038%=      5-min Rain = 0
KLO1 211810Z 15022KT 15/01 A2984 RMK A01 T01470005  RH  038%=      5-min Rain = 0
KLO1 211811Z 16020KT 14/00 A2984 RMK A01 T01430001  RH  038%=      5-min Rain = 0
KLO1 211812Z 15018G23KT 14/00 A2984 RMK A01 T01400002  RH  039%=      5-min Rain = 0
KLO1 211813Z 15021KT 14/00 A2984 RMK A01 T01400004  RH  039%=      5-min Rain = 0
KLO1 211814Z 16019KT 14/01 A2983 RMK A01 T01420005  RH  039%=      5-min Rain = 0
KLO1 211815Z 16020KT 14/00 A2983 RMK A01 T01430004  RH  039%=      5-min Rain = 0
KLO1 211816Z 15021KT 14/01 A2983 RMK A01 T01430005  RH  039%=      5-min Rain = 0
KLO1 211817Z 15020KT 14/00 A2983 RMK A01 T01430004  RH  039%=      5-min Rain = 0
KLO1 211818Z 16020KT 15/01 A2983 RMK A01 T01450005  RH  038%=      5-min Rain = 0
KLO1 211819Z 15020KT 15/01 A2983 RMK A01 T01470007  RH  038%=      5-min Rain = 0
KLO1 211820Z 15021KT 15/01 A2982 RMK A01 T01490005  RH  038%=      5-min Rain = 0
KLO1 211821Z 15025KT 15/00 A2982 RMK A01 T01460004  RH  038%=      5-min Rain = 0
KLO1 211822Z 15022KT 15/00 A2982 RMK A01 T01460004  RH  038%=      5-min Rain = 0
KLO1 211823Z 15021KT 14/00 A2982 RMK A01 T01430003  RH  038%=      5-min Rain = 0
KLO1 211824Z 14024KT 14/00 A2982 RMK A01 T01440004  RH  039%=      5-min Rain = 0
KLO1 211825Z 15024KT 14/00 A2982 RMK A01 T01420002  RH  038%=      5-min Rain = 0
KLO1 211826Z 15022KT 14/00 A2982 RMK A01 T01400002  RH  039%=      5-min Rain = 0
KLO1 211827Z 15022KT 14/01 A2981 RMK A01 T01430005  RH  039%=      5-min Rain = 0
KLO1 211828Z 15024KT 15/00 A2981 RMK A01 T01450004  RH  038%=      5-min Rain = 0
KLO1 211829Z 15019KT 15/00 A2981 RMK A01 T01450004  RH  038%=      5-min Rain = 0
KLO1 211830Z 15019G24KT 15/01 A2982 RMK A01 T01460006  RH  038%=      5-min Rain = 0
KLO1 211831Z 16023G28KT 15/01 A2981 RMK A01 T01480006  RH  038%=      5-min Rain = 0
KLO1 211832Z 17023G29KT 15/00 A2982 RMK A01 T01480003  RH  037%=      5-min Rain = 0
KLO1 211833Z 17025KT 15/00 A2982 RMK A01 T01500002  RH  036%=      5-min Rain = 0
KLO1 211834Z 17026KT 15/00 A2982 RMK A01 T01500001  RH  036%=      5-min Rain = 0
KLO1 211835Z 17024KT 15/00 A2982 RMK A01 T014900-0  RH  036%=      5-min Rain = 0
KLO1 211836Z 17022KT 15/M00 A2982 RMK A01 T01481001  RH  036%=      5-min Rain = 0
KLO1 211837Z 17021KT 15/00 A2982 RMK A01 T01480002  RH  037%=      5-min Rain = 0
KLO1 211838Z 17023KT 15/00 A2982 RMK A01 T01500002  RH  037%=      5-min Rain = 0
KLO1 211839Z 16023G28KT 15/00 A2982 RMK A01 T01500003  RH  036%=      5-min Rain = 0
KLO1 211840Z 17022G28KT 15/00 A2982 RMK A01 T01510002  RH  036%=      5-min Rain = 0
KLO1 211841Z 16023KT 15/00 A2982 RMK A01 T01530003  RH  036%=      5-min Rain = 0
KLO1 211842Z 16020KT 15/00 A2982 RMK A01 T01530003  RH  036%=      5-min Rain = 0
KLO1 211843Z 16023G28KT 15/00 A2982 RMK A01 T01530003  RH  036%=      5-min Rain = 0
KLO1 211844Z 16021KT 15/00 A2982 RMK A01 T01520002  RH  036%=      5-min Rain = 0
KLO1 211845Z 16021G26KT 15/00 A2982 RMK A01 T01520004  RH  036%=      5-min Rain = 0
KLO1 211846Z 17026G31KT 15/00 A2982 RMK A01 T01540003  RH  036%=      5-min Rain = 0
KLO1 211847Z 17021KT 15/00 A2982 RMK A01 T01520001  RH  036%=      5-min Rain = 0
KLO1 211848Z 17024KT 15/00 A2982 RMK A01 T01520003  RH  036%=      5-min Rain = 0
KLO1 211849Z 17027KT 15/00 A2982 RMK A01 T01520000  RH  036%=      5-min Rain = 0
KLO1 211850Z 17023KT 15/00 A2982 RMK A01 T01510001  RH  036%=      5-min Rain = 0
KLO1 211851Z 17022KT 15/00 A2982 RMK A01 T01510002  RH  036%=      5-min Rain = 0
KLO1 211852Z 17023KT 15/00 A2982 RMK A01 T01520003  RH  036%=      5-min Rain = 0
KLO1 211853Z 16022G27KT 15/00 A2982 RMK A01 T01520002  RH  036%=      5-min Rain = 0
KLO1 211854Z 17023KT 15/00 A2982 RMK A01 T01530004  RH  036%=      5-min Rain = 0
KLO1 211855Z 18022KT 15/00 A2982 RMK A01 T01540003  RH  036%=      5-min Rain = 0
KLO1 211856Z 17022KT 15/00 A2982 RMK A01 T01540002  RH  035%=      5-min Rain = 0
KLO1 211857Z 17019KT 15/00 A2982 RMK A01 T01540004  RH  036%=      5-min Rain = 0
KLO1 211858Z 16021G26KT 16/01 A2982 RMK A01 T01570006  RH  036%=      5-min Rain = 0
KLO1 211859Z 16018KT 16/01 A2983 RMK A01 T01570006  RH  036%=      5-min Rain = 0
KLO1 211900Z 16019KT 16/01 A2983 RMK A01 T01590007  RH  036%=      5-min Rain = 0
KLO1 211901Z 18021KT 16/00 A2983 RMK A01 T01600004  RH  035%=      5-min Rain = 0
KLO1 211902Z 18020KT 16/00 A2983 RMK A01 T01560001  RH  035%=      5-min Rain = 0
KLO1 211903Z 18020KT 15/00 A2983 RMK A01 T01540002  RH  035%=      5-min Rain = 0
KLO1 211904Z 18020G25KT 15/00 A2983 RMK A01 T01540003  RH  036%=      5-min Rain = 0
KLO1 211905Z 18020KT 16/00 A2983 RMK A01 T01550004  RH  036%=      5-min Rain = 0
KLO1 211906Z 17017KT 15/01 A2983 RMK A01 T01540005  RH  036%=      5-min Rain = 0
KLO1 211907Z 17018KT 16/01 A2983 RMK A01 T01560008  RH  036%=      5-min Rain = 0
KLO1 211908Z 17018KT 16/01 A2983 RMK A01 T01600008  RH  036%=      5-min Rain = 0
KLO1 211909Z 18018KT 16/01 A2983 RMK A01 T01590006  RH  035%=      5-min Rain = 0
KLO1 211910Z 18019KT 16/01 A2983 RMK A01 T01590006  RH  035%=      5-min Rain = 0
KLO1 211911Z 17018KT 16/00 A2982 RMK A01 T01590004  RH  035%=      5-min Rain = 0
KLO1 211912Z 17019KT 16/00 A2982 RMK A01 T01570004  RH  035%=      5-min Rain = 0
KLO1 211913Z 16020KT 16/01 A2982 RMK A01 T01570005  RH  036%=      5-min Rain = 0
KLO1 211914Z 16020KT 16/01 A2982 RMK A01 T01560005  RH  036%=      5-min Rain = 0
KLO1 211915Z 16020KT 16/01 A2982 RMK A01 T01550005  RH  036%=      5-min Rain = 0
KLO1 211916Z 17020KT 16/01 A2982 RMK A01 T01550007  RH  036%=      5-min Rain = 0
KLO1 211917Z 17019KT 16/01 A2982 RMK A01 T01580007  RH  036%=      5-min Rain = 0
KLO1 211918Z 16018G24KT 16/01 A2982 RMK A01 T01580005  RH  035%=      5-min Rain = 0
KLO1 211919Z 17015KT 16/01 A2982 RMK A01 T01600009  RH  036%=      5-min Rain = 0
KLO1 211920Z 17018KT 16/01 A2982 RMK A01 T01630008  RH  035%=      5-min Rain = 0
KLO1 211921Z 17015KT 16/01 A2982 RMK A01 T01600006  RH  035%=      5-min Rain = 0
KLO1 211922Z 16017KT 16/01 A2982 RMK A01 T01600008  RH  036%=      5-min Rain = 0
KLO1 211923Z 16016KT 16/01 A2982 RMK A01 T01600007  RH  035%=      5-min Rain = 0
KLO1 211924Z 16018KT 16/01 A2982 RMK A01 T01610007  RH  035%=      5-min Rain = 0
KLO1 211925Z 16018KT 16/01 A2982 RMK A01 T01610007  RH  035%=      5-min Rain = 0
KLO1 211926Z 16018KT 16/01 A2982 RMK A01 T01570005  RH  035%=      5-min Rain = 0
KLO1 211927Z 15016KT 16/01 A2982 RMK A01 T01550005  RH  036%=      5-min Rain = 0
KLO1 211928Z 15018KT 16/01 A2981 RMK A01 T01550008  RH  037%=      5-min Rain = 0
KLO1 211929Z 17019KT 16/01 A2981 RMK A01 T01560007  RH  036%=      5-min Rain = 0
KLO1 211930Z 15019KT 16/01 A2981 RMK A01 T01590008  RH  036%=      5-min Rain = 0
KLO1 211931Z 15018KT 16/01 A2981 RMK A01 T01600006  RH  035%=      5-min Rain = 0
KLO1 211932Z 16016KT 16/01 A2981 RMK A01 T01590006  RH  035%=      5-min Rain = 0
KLO1 211933Z 15017G22KT 16/01 A2981 RMK A01 T01580008  RH  036%=      5-min Rain = 0
KLO1 211934Z 17020KT 16/01 A2981 RMK A01 T01600008  RH  035%=      5-min Rain = 0
KLO1 211935Z 17017KT 16/01 A2981 RMK A01 T01590005  RH  035%=      5-min Rain = 0
KLO1 211936Z 17020KT 16/01 A2981 RMK A01 T01600006  RH  035%=      5-min Rain = 0
KLO1 211937Z 17021KT 16/01 A2981 RMK A01 T01600006  RH  035%=      5-min Rain = 0
KLO1 211938Z 17017KT 16/01 A2981 RMK A01 T01600006  RH  035%=      5-min Rain = 0
KLO1 211939Z 17017KT 16/01 A2981 RMK A01 T01620008  RH  035%=      5-min Rain = 0
KLO1 211940Z 15017KT 16/01 A2981 RMK A01 T01630010  RH  035%=      5-min Rain = 0
KLO1 211941Z 15019KT 16/01 A2981 RMK A01 T01620010  RH  036%=      5-min Rain = 0
KLO1 211942Z 16018KT 16/01 A2981 RMK A01 T01620009  RH  035%=      5-min Rain = 0
KLO1 211943Z 16020KT 16/01 A2981 RMK A01 T01620009  RH  035%=      5-min Rain = 0
KLO1 211944Z 15017KT 16/01 A2981 RMK A01 T01630008  RH  035%=      5-min Rain = 0
KLO1 211945Z 16016KT 16/01 A2981 RMK A01 T01620008  RH  035%=      5-min Rain = 0
KLO1 211946Z 17019KT 16/01 A298 RMK A01 T01620007  RH  035%=      5-min Rain = 0
KLO1 211947Z 17018G24KT 16/01 A298 RMK A01 T01620007  RH  035%=      5-min Rain = 0
KLO1 211948Z 16019KT 16/01 A298 RMK A01 T01630008  RH  035%=      5-min Rain = 0
KLO1 211949Z 16018KT 16/01 A298 RMK A01 T01630009  RH  035%=      5-min Rain = 0
KLO1 211950Z 14017KT 16/01 A298 RMK A01 T01620011  RH  036%=      5-min Rain = 0
KLO1 211951Z 14016KT 16/01 A298 RMK A01 T01610010  RH  036%=      5-min Rain = 0
KLO1 211952Z 14016KT 16/01 A298 RMK A01 T01630011  RH  036%=      5-min Rain = 0
KLO1 211953Z 16016KT 16/01 A298 RMK A01 T01630011  RH  036%=      5-min Rain = 0
KLO1 211954Z 16016KT 16/01 A298 RMK A01 T01640010  RH  035%=      5-min Rain = 0
KLO1 211955Z 15017KT 16/01 A298 RMK A01 T01620009  RH  035%=      5-min Rain = 0
KLO1 211956Z 15018KT 16/01 A298 RMK A01 T01620010  RH  036%=      5-min Rain = 0
KLO1 211957Z 15018KT 16/01 A298 RMK A01 T01610008  RH  035%=      5-min Rain = 0
KLO1 211958Z 15015KT 16/01 A298 RMK A01 T01580008  RH  036%=      5-min Rain = 0
KLO1 211959Z 15017KT 16/01 A298 RMK A01 T01610012  RH  037%=      5-min Rain = 0
KLO1 212000Z 16016KT 16/01 A298 RMK A01 T01620012  RH  036%=      5-min Rain = 0
KLO1 212001Z 15014KT 16/01 A298 RMK A01 T01630014  RH  036%=      5-min Rain = 0
KLO1 212002Z 15019KT 17/02 A298 RMK A01 T01670015  RH  036%=      5-min Rain = 0
KLO1 212003Z 14018KT 17/01 A298 RMK A01 T01650011  RH  035%=      5-min Rain = 0
KLO1 212004Z 15016KT 16/01 A298 RMK A01 T01630012  RH  036%=      5-min Rain = 0
KLO1 212005Z 14016KT 16/01 A298 RMK A01 T01630012  RH  036%=      5-min Rain = 0
KLO1 212006Z 15018G25KT 16/01 A298 RMK A01 T01630012  RH  036%=      5-min Rain = 0
KLO1 212007Z 15018KT 16/01 A2979 RMK A01 T01630012  RH  036%=      5-min Rain = 0
KLO1 212008Z 15017KT 16/01 A298 RMK A01 T01610010  RH  036%=      5-min Rain = 0
KLO1 212009Z 15014KT 16/01 A298 RMK A01 T01630014  RH  036%=      5-min Rain = 0
KLO1 212010Z 16017KT 17/02 A2979 RMK A01 T01660015  RH  036%=      5-min Rain = 0
KLO1 212011Z 15020KT 17/01 A2979 RMK A01 T01670014  RH  035%=      5-min Rain = 0
KLO1 212012Z 15017KT 17/01 A2979 RMK A01 T01650012  RH  036%=      5-min Rain = 0
KLO1 212013Z 14018KT 16/01 A2979 RMK A01 T01630013  RH  036%=      5-min Rain = 0
KLO1 212014Z 14018G24KT 16/01 A2979 RMK A01 T01630013  RH  036%=      5-min Rain = 0
KLO1 212015Z 14017KT 16/01 A2979 RMK A01 T01630013  RH  036%=      5-min Rain = 0
KLO1 212016Z 13019KT 17/02 A2979 RMK A01 T01650015  RH  036%=      5-min Rain = 0
KLO1 212017Z 14019KT 17/01 A2979 RMK A01 T01660013  RH  036%=      5-min Rain = 0
KLO1 212018Z 14018KT 17/01 A2979 RMK A01 T01660014  RH  036%=      5-min Rain = 0
KLO1 212019Z 15021KT 17/01 A2979 RMK A01 T01660014  RH  036%=      5-min Rain = 0
KLO1 212020Z 15021KT 17/01 A2979 RMK A01 T01660013  RH  036%=      5-min Rain = 0
KLO1 212021Z 16017KT 17/01 A2979 RMK A01 T01650012  RH  035%=      5-min Rain = 0
KLO1 212022Z 15016KT 16/01 A2979 RMK A01 T01630013  RH  036%=      5-min Rain = 0
KLO1 212023Z 15016KT 17/02 A2979 RMK A01 T01660016  RH  036%=      5-min Rain = 0
KLO1 212024Z 15016G21KT 17/02 A2979 RMK A01 T01670017  RH  036%=      5-min Rain = 0
KLO1 212025Z 15021KT 17/02 A2979 RMK A01 T01690016  RH  036%=      5-min Rain = 0
KLO1 212026Z 15019KT 17/01 A2979 RMK A01 T01670014  RH  036%=      5-min Rain = 0
KLO1 212027Z 16018KT 17/01 A2979 RMK A01 T01650014  RH  036%=      5-min Rain = 0
KLO1 212028Z 14018KT 17/02 A2979 RMK A01 T01670016  RH  036%=      5-min Rain = 0
KLO1 212029Z 15019KT 17/02 A2979 RMK A01 T01690016  RH  036%=      5-min Rain = 0
KLO1 212030Z 15019KT 17/02 A2979 RMK A01 T01680015  RH  036%=      5-min Rain = 0
KLO1 212031Z 15019KT 17/02 A2978 RMK A01 T01670015  RH  036%=      5-min Rain = 0
KLO1 212032Z 15019KT 17/01 A2978 RMK A01 T01670014  RH  036%=      5-min Rain = 0
KLO1 212033Z 15018G23KT 17/02 A2978 RMK A01 T01660015  RH  036%=      5-min Rain = 0
KLO1 212034Z 14019G24KT 17/01 A2978 RMK A01 T01660014  RH  036%=      5-min Rain = 0
KLO1 212035Z 15020KT 17/01 A2978 RMK A01 T01650014  RH  036%=      5-min Rain = 0
KLO1 212036Z 15019KT 17/01 A2978 RMK A01 T01670014  RH  036%=      5-min Rain = 0
KLO1 212037Z 15016KT 17/01 A2978 RMK A01 T01660014  RH  036%=      5-min Rain = 0
KLO1 212038Z 16016KT 17/02 A2978 RMK A01 T01670015  RH  036%=      5-min Rain = 0
KLO1 212039Z 14019KT 17/02 A2978 RMK A01 T01680016  RH  036%=      5-min Rain = 0
KLO1 212040Z 14019KT 17/02 A2978 RMK A01 T01690016  RH  036%=      5-min Rain = 0
KLO1 212041Z 14016KT 17/02 A2978 RMK A01 T01680016  RH  036%=      5-min Rain = 0
KLO1 212042Z 15018KT 17/02 A2978 RMK A01 T01680016  RH  036%=      5-min Rain = 0
KLO1 212043Z 15018KT 17/02 A2978 RMK A01 T01660016  RH  036%=      5-min Rain = 0
KLO1 212044Z 16018KT 17/01 A2978 RMK A01 T01670014  RH  036%=      5-min Rain = 0
KLO1 212045Z 17019KT 17/01 A2978 RMK A01 T01660014  RH  036%=      5-min Rain = 0
KLO1 212046Z 16015KT 17/01 A2978 RMK A01 T01660013  RH  035%=      5-min Rain = 0
KLO1 212047Z 14017KT 17/02 A2978 RMK A01 T01670015  RH  036%=      5-min Rain = 0
KLO1 212048Z 14017G22KT 17/02 A2978 RMK A01 T01700019  RH  036%=      5-min Rain = 0
KLO1 212049Z 14019KT 17/02 A2978 RMK A01 T01730019  RH  035%=      5-min Rain = 0
KLO1 212050Z 14016KT 17/02 A2978 RMK A01 T01730018  RH  035%=      5-min Rain = 0
KLO1 212051Z 14016KT 17/02 A2978 RMK A01 T01720017  RH  035%=      5-min Rain = 0
KLO1 212052Z 14017KT 17/02 A2978 RMK A01 T01720017  RH  035%=      5-min Rain = 0
KLO1 212053Z 14017KT 17/02 A2978 RMK A01 T01710016  RH  035%=      5-min Rain = 0
KLO1 212054Z 13017KT 17/02 A2978 RMK A01 T01710016  RH  035%=      5-min Rain = 0
KLO1 212055Z 14017KT 17/02 A2978 RMK A01 T01700016  RH  035%=      5-min Rain = 0
KLO1 212056Z 13013KT 17/02 A2978 RMK A01 T01700016  RH  036%=      5-min Rain = 0
KLO1 212057Z 14016KT 17/02 A2978 RMK A01 T01710017  RH  035%=      5-min Rain = 0
KLO1 212058Z 14015KT 17/02 A2978 RMK A01 T01720016  RH  035%=      5-min Rain = 0
KLO1 212059Z 13017KT 17/02 A2978 RMK A01 T01710015  RH  035%=      5-min Rain = 0
KLO1 212100Z 14017KT 17/01 A2978 RMK A01 T01690014  RH  035%=      5-min Rain = 0
KLO1 212101Z 14018KT 17/02 A2978 RMK A01 T01690015  RH  035%=      5-min Rain = 0
KLO1 212102Z 14019KT 17/02 A2978 RMK A01 T01700015  RH  035%=      5-min Rain = 0
KLO1 212103Z 15017KT 17/02 A2978 RMK A01 T01690015  RH  035%=      5-min Rain = 0
KLO1 212104Z 16012KT 17/02 A2978 RMK A01 T01680015  RH  036%=      5-min Rain = 0
KLO1 212105Z 14015KT 17/02 A2978 RMK A01 T01670016  RH  036%=      5-min Rain = 0
KLO1 212106Z 14014KT 17/02 A2978 RMK A01 T01680017  RH  036%=      5-min Rain = 0
KLO1 212107Z 14015KT 17/02 A2978 RMK A01 T01690016  RH  036%=      5-min Rain = 0
KLO1 212108Z 14016KT 17/02 A2978 RMK A01 T01700016  RH  035%=      5-min Rain = 0
KLO1 212109Z 16019KT 17/02 A2978 RMK A01 T01720017  RH  035%=      5-min Rain = 0
KLO1 212110Z 15016KT 17/02 A2978 RMK A01 T01720015  RH  035%=      5-min Rain = 0
KLO1 212111Z 14016KT 17/02 A2978 RMK A01 T01700015  RH  035%=      5-min Rain = 0
KLO1 212112Z 14017KT 17/02 A2978 RMK A01 T01710015  RH  035%=      5-min Rain = 0
KLO1 212113Z 15014KT 17/01 A2978 RMK A01 T01700014  RH  035%=      5-min Rain = 0
KLO1 212114Z 14018KT 17/02 A2978 RMK A01 T01700017  RH  036%=      5-min Rain = 0
KLO1 212115Z 13019KT 17/02 A2978 RMK A01 T01710016  RH  035%=      5-min Rain = 0
KLO1 212116Z 13018KT 17/02 A2978 RMK A01 T01710016  RH  035%=      5-min Rain = 0
KLO1 212117Z 13019KT 17/02 A2978 RMK A01 T01710015  RH  035%=      5-min Rain = 0
KLO1 212118Z 13017KT 17/02 A2978 RMK A01 T01700015  RH  035%=      5-min Rain = 0
KLO1 212119Z 13017KT 17/02 A2978 RMK A01 T01700016  RH  035%=      5-min Rain = 0
KLO1 212120Z 13015KT 17/02 A2978 RMK A01 T01710016  RH  035%=      5-min Rain = 0
KLO1 212121Z 13017KT 17/02 A2978 RMK A01 T01710017  RH  035%=      5-min Rain = 0
KLO1 212122Z 14015KT 17/02 A2978 RMK A01 T01710017  RH  035%=      5-min Rain = 0
KLO1 212123Z 14014KT 17/02 A2978 RMK A01 T01720018  RH  036%=      5-min Rain = 0
KLO1 212124Z 14016KT 18/02 A2978 RMK A01 T01760019  RH  035%=      5-min Rain = 0
KLO1 212125Z 14017KT 18/02 A2978 RMK A01 T01760018  RH  034%=      5-min Rain = 0
KLO1 212126Z 14018KT 18/02 A2978 RMK A01 T01750017  RH  034%=      5-min Rain = 0
KLO1 212127Z 14016KT 17/02 A2978 RMK A01 T01740017  RH  035%=      5-min Rain = 0
KLO1 212128Z 15015KT 17/02 A2977 RMK A01 T01740017  RH  035%=      5-min Rain = 0
KLO1 212129Z 14016KT 17/02 A2977 RMK A01 T01720018  RH  035%=      5-min Rain = 0
KLO1 212130Z 14016KT 17/02 A2977 RMK A01 T01740019  RH  035%=      5-min Rain = 0
KLO1 212131Z 13017KT 18/02 A2978 RMK A01 T01750018  RH  035%=      5-min Rain = 0
KLO1 212132Z 14016KT 18/02 A2978 RMK A01 T01750018  RH  035%=      5-min Rain = 0
KLO1 212133Z 14016KT 17/02 A2978 RMK A01 T01740018  RH  035%=      5-min Rain = 0
KLO1 212134Z 14016KT 18/02 A2978 RMK A01 T01750019  RH  035%=      5-min Rain = 0
KLO1 212135Z 15014G19KT 17/02 A2977 RMK A01 T01740017  RH  035%=      5-min Rain = 0
KLO1 212136Z 14016KT 17/02 A2978 RMK A01 T01720017  RH  035%=      5-min Rain = 0
KLO1 212137Z 14019KT 17/02 A2978 RMK A01 T01720018  RH  035%=      5-min Rain = 0
KLO1 212138Z 14017KT 17/02 A2977 RMK A01 T01730018  RH  035%=      5-min Rain = 0
KLO1 212139Z 14017G22KT 17/02 A2977 RMK A01 T01720018  RH  035%=      5-min Rain = 0
KLO1 212140Z 14016KT 17/02 A2977 RMK A01 T01710018  RH  036%=      5-min Rain = 0
KLO1 212141Z 14019KT 17/02 A2978 RMK A01 T01730018  RH  035%=      5-min Rain = 0
KLO1 212142Z 15019KT 17/02 A2978 RMK A01 T01720015  RH  035%=      5-min Rain = 0
KLO1 212143Z 16017KT 17/02 A2978 RMK A01 T01720017  RH  035%=      5-min Rain = 0
KLO1 212144Z 16014KT 17/02 A2978 RMK A01 T01710017  RH  035%=      5-min Rain = 0
KLO1 212145Z 16013G18KT 17/02 A2978 RMK A01 T01710016  RH  035%=      5-min Rain = 0
KLO1 212146Z 15016KT 17/02 A2978 RMK A01 T01710017  RH  035%=      5-min Rain = 0
KLO1 212147Z 15018KT 17/02 A2978 RMK A01 T01730018  RH  035%=      5-min Rain = 0
KLO1 212148Z 15017KT 17/02 A2977 RMK A01 T01730018  RH  035%=      5-min Rain = 0
KLO1 212149Z 13016KT 17/02 A2978 RMK A01 T01730019  RH  036%=      5-min Rain = 0
KLO1 212150Z 14017KT 17/02 A2977 RMK A01 T01740019  RH  035%=      5-min Rain = 0
KLO1 212151Z 14017G22KT 18/02 A2977 RMK A01 T01750020  RH  035%=      5-min Rain = 0
KLO1 212152Z 13018KT 18/02 A2977 RMK A01 T01750019  RH  035%=      5-min Rain = 0
KLO1 212153Z 13018KT 18/02 A2977 RMK A01 T01750018  RH  035%=      5-min Rain = 0
KLO1 212154Z 14018KT 17/02 A2977 RMK A01 T01720017  RH  035%=      5-min Rain = 0
KLO1 212155Z 13017KT 18/02 A2977 RMK A01 T01750020  RH  035%=      5-min Rain = 0
KLO1 212156Z 13017KT 18/02 A2977 RMK A01 T01770020  RH  035%=      5-min Rain = 0
KLO1 212157Z 13018KT 18/02 A2977 RMK A01 T01760019  RH  035%=      5-min Rain = 0
KLO1 212158Z 14015G20KT 18/02 A2977 RMK A01 T01750020  RH  035%=      5-min Rain = 0
KLO1 212159Z 14020KT 18/02 A2977 RMK A01 T01770021  RH  035%=      5-min Rain = 0
KLO1 212200Z 14019KT 18/02 A2977 RMK A01 T01770019  RH  035%=      5-min Rain = 0
KLO1 212201Z 14017KT 18/02 A2977 RMK A01 T01750018  RH  035%=      5-min Rain = 0
KLO1 212202Z 14016KT 17/02 A2977 RMK A01 T01730018  RH  035%=      5-min Rain = 0
KLO1 212203Z 14016KT 17/02 A2977 RMK A01 T01740020  RH  036%=      5-min Rain = 0
KLO1 212204Z 14016KT 18/02 A2977 RMK A01 T01760019  RH  035%=      5-min Rain = 0
KLO1 212205Z 15014KT 18/02 A2977 RMK A01 T01760020  RH  035%=      5-min Rain = 0
KLO1 212206Z 14015KT 18/02 A2977 RMK A01 T01770021  RH  035%=      5-min Rain = 0
KLO1 212207Z 15020KT 18/02 A2977 RMK A01 T01770019  RH  034%=      5-min Rain = 0
KLO1 212208Z 14020KT 17/02 A2977 RMK A01 T01740016  RH  034%=      5-min Rain = 0
KLO1 212209Z 14017KT 17/02 A2977 RMK A01 T01720017  RH  035%=      5-min Rain = 0
KLO1 212210Z 14018KT 17/02 A2977 RMK A01 T01730019  RH  036%=      5-min Rain = 0
KLO1 212211Z 13019KT 17/02 A2977 RMK A01 T01740018  RH  035%=      5-min Rain = 0
KLO1 212212Z 15017KT 17/02 A2977 RMK A01 T01730019  RH  035%=      5-min Rain = 0
KLO1 212213Z 14017KT 17/02 A2977 RMK A01 T01730019  RH  035%=      5-min Rain = 0
KLO1 212214Z 13020KT 17/02 A2977 RMK A01 T01740019  RH  035%=      5-min Rain = 0
KLO1 212215Z 14021KT 17/02 A2977 RMK A01 T01740018  RH  035%=      5-min Rain = 0
KLO1 212216Z 15021KT 17/02 A2977 RMK A01 T01740018  RH  035%=      5-min Rain = 0
KLO1 212217Z 14020KT 17/02 A2977 RMK A01 T01720017  RH  035%=      5-min Rain = 0
KLO1 212218Z 14019KT 17/02 A2977 RMK A01 T01710017  RH  035%=      5-min Rain = 0
KLO1 212219Z 14016KT 17/02 A2977 RMK A01 T01710018  RH  036%=      5-min Rain = 0
KLO1 212220Z 14018KT 17/02 A2977 RMK A01 T01720020  RH  036%=      5-min Rain = 0
KLO1 212221Z 15021KT 17/02 A2977 RMK A01 T01730019  RH  035%=      5-min Rain = 0
KLO1 212222Z 15019KT 17/02 A2977 RMK A01 T01710018  RH  036%=      5-min Rain = 0
KLO1 212223Z 14019KT 17/02 A2977 RMK A01 T01700019  RH  036%=      5-min Rain = 0
KLO1 212224Z 14019KT 17/02 A2977 RMK A01 T01700018  RH  036%=      5-min Rain = 0
KLO1 212225Z 14020KT 17/02 A2977 RMK A01 T01690019  RH  036%=      5-min Rain = 0
KLO1 212226Z 14018KT 17/02 A2977 RMK A01 T01700019  RH  036%=      5-min Rain = 0
KLO1 212227Z 14019KT 17/02 A2977 RMK A01 T01710019  RH  036%=      5-min Rain = 0
KLO1 212228Z 14022KT 17/02 A2977 RMK A01 T01710018  RH  036%=      5-min Rain = 0
KLO1 212229Z 14019KT 17/02 A2977 RMK A01 T01700018  RH  036%=      5-min Rain = 0
KLO1 212230Z 14019KT 17/02 A2977 RMK A01 T01700018  RH  036%=      5-min Rain = 0
KLO1 212231Z 14020KT 17/02 A2977 RMK A01 T01690017  RH  036%=      5-min Rain = 0
KLO1 212232Z 14020KT 17/02 A2977 RMK A01 T01690017  RH  036%=      5-min Rain = 0
KLO1 212233Z 14017KT 17/02 A2977 RMK A01 T01700017  RH  036%=      5-min Rain = 0
KLO1 212234Z 14020KT 17/02 A2977 RMK A01 T01710018  RH  036%=      5-min Rain = 0
KLO1 212235Z 14018KT 17/02 A2977 RMK A01 T01710017  RH  035%=      5-min Rain = 0
KLO1 212236Z 14020KT 17/02 A2977 RMK A01 T01720017  RH  035%=      5-min Rain = 0
KLO1 212237Z 14019KT 17/02 A2977 RMK A01 T01710016  RH  035%=      5-min Rain = 0
KLO1 212238Z 14016KT 17/02 A2977 RMK A01 T01700016  RH  036%=      5-min Rain = 0
KLO1 212239Z 14015KT 17/02 A2977 RMK A01 T01700017  RH  036%=      5-min Rain = 0
KLO1 212240Z 15015KT 17/02 A2977 RMK A01 T01710018  RH  036%=      5-min Rain = 0
KLO1 212241Z 14016KT 17/02 A2977 RMK A01 T01720018  RH  036%=      5-min Rain = 0
KLO1 212242Z 14016KT 17/02 A2977 RMK A01 T01720018  RH  036%=      5-min Rain = 0
KLO1 212243Z 14016KT 17/02 A2977 RMK A01 T01720019  RH  036%=      5-min Rain = 0
KLO1 212244Z 14016KT 17/02 A2977 RMK A01 T01710019  RH  036%=      5-min Rain = 0
KLO1 212245Z 14018G23KT 17/02 A2977 RMK A01 T01710019  RH  036%=      5-min Rain = 0
KLO1 212246Z 14018KT 17/02 A2977 RMK A01 T01710018  RH  036%=      5-min Rain = 0
KLO1 212247Z 13018KT 17/02 A2977 RMK A01 T01680017  RH  036%=      5-min Rain = 0
KLO1 212248Z 13016KT 17/02 A2977 RMK A01 T01670017  RH  036%=      5-min Rain = 0
KLO1 212249Z 14017KT 17/02 A2977 RMK A01 T01670018  RH  037%=      5-min Rain = 0
KLO1 212250Z 14016KT 17/02 A2977 RMK A01 T01680018  RH  037%=      5-min Rain = 0
KLO1 212251Z 13016KT 17/02 A2978 RMK A01 T01670018  RH  037%=      5-min Rain = 0
KLO1 212252Z 13018KT 17/02 A2978 RMK A01 T01670018  RH  037%=      5-min Rain = 0
KLO1 212253Z 14017KT 17/02 A2978 RMK A01 T01660018  RH  037%=      5-min Rain = 0
KLO1 212254Z 13017KT 17/02 A2978 RMK A01 T01660017  RH  037%=      5-min Rain = 0
KLO1 212255Z 13018KT 17/02 A2978 RMK A01 T01650017  RH  037%=      5-min Rain = 0
KLO1 212256Z 14016KT 17/02 A2978 RMK A01 T01650017  RH  037%=      5-min Rain = 0
KLO1 212257Z 14016KT 17/02 A2978 RMK A01 T01660018  RH  037%=      5-min Rain = 0
KLO1 212258Z 14016KT 17/02 A2978 RMK A01 T01660018  RH  037%=      5-min Rain = 0
KLO1 212259Z 14018KT 17/02 A2978 RMK A01 T01660018  RH  037%=      5-min Rain = 0
KLO1 212300Z 14018KT 17/02 A2978 RMK A01 T01650017  RH  037%=      5-min Rain = 0
KLO1 212301Z 14019KT 16/02 A2978 RMK A01 T01640016  RH  037%=      5-min Rain = 0
KLO1 212302Z 13019KT 16/02 A2978 RMK A01 T01630016  RH  037%=      5-min Rain = 0
KLO1 212303Z 14016KT 16/02 A2978 RMK A01 T01620016  RH  037%=      5-min Rain = 0
KLO1 212304Z 14015KT 16/02 A2978 RMK A01 T01630017  RH  037%=      5-min Rain = 0
KLO1 212305Z 13016KT 16/02 A2978 RMK A01 T01630018  RH  037%=      5-min Rain = 0
KLO1 212306Z 13018KT 16/02 A2978 RMK A01 T01640017  RH  037%=      5-min Rain = 0
KLO1 212307Z 13016KT 16/02 A2978 RMK A01 T01630016  RH  037%=      5-min Rain = 0
KLO1 212308Z 13018KT 16/02 A2978 RMK A01 T01630016  RH  037%=      5-min Rain = 0
KLO1 212309Z 13018KT 16/02 A2978 RMK A01 T01620015  RH  037%=      5-min Rain = 0
KLO1 212310Z 13016KT 16/02 A2978 RMK A01 T01620015  RH  037%=      5-min Rain = 0
KLO1 212311Z 14016KT 16/02 A2978 RMK A01 T01620016  RH  037%=      5-min Rain = 0
KLO1 212312Z 14014KT 16/02 A2977 RMK A01 T01620016  RH  037%=      5-min Rain = 0
KLO1 212313Z 13016KT 16/02 A2977 RMK A01 T01620016  RH  037%=      5-min Rain = 0
KLO1 212314Z 14017KT 16/02 A2977 RMK A01 T01620015  RH  037%=      5-min Rain = 0
KLO1 212315Z 14020KT 16/02 A2977 RMK A01 T01620015  RH  037%=      5-min Rain = 0
KLO1 212316Z 14017KT 16/02 A2978 RMK A01 T01610016  RH  037%=      5-min Rain = 0
KLO1 212317Z 14015KT 16/02 A2978 RMK A01 T01610016  RH  038%=      5-min Rain = 0
KLO1 212318Z 14016KT 16/02 A2978 RMK A01 T01610017  RH  038%=      5-min Rain = 0
KLO1 212319Z 13015KT 16/02 A2978 RMK A01 T01620016  RH  037%=      5-min Rain = 0
KLO1 212320Z 14016KT 16/02 A2978 RMK A01 T01610016  RH  037%=      5-min Rain = 0
KLO1 212321Z 14016KT 16/02 A2978 RMK A01 T01600016  RH  038%=      5-min Rain = 0
KLO1 212322Z 13016KT 16/02 A2978 RMK A01 T01600015  RH  038%=      5-min Rain = 0
KLO1 212323Z 13017KT 16/02 A2978 RMK A01 T01600016  RH  038%=      5-min Rain = 0
KLO1 212324Z 13017KT 16/02 A2978 RMK A01 T01610016  RH  037%=      5-min Rain = 0
KLO1 212325Z 14015KT 16/02 A2978 RMK A01 T01610015  RH  037%=      5-min Rain = 0
KLO1 212326Z 13017KT 16/01 A2978 RMK A01 T01610014  RH  037%=      5-min Rain = 0
KLO1 212327Z 14015KT 16/01 A2978 RMK A01 T01610014  RH  037%=      5-min Rain = 0
KLO1 212328Z 14016KT 16/02 A2978 RMK A01 T01610015  RH  037%=      5-min Rain = 0
KLO1 212329Z 14015KT 16/02 A2978 RMK A01 T01610015  RH  037%=      5-min Rain = 0
KLO1 212330Z 13015KT 16/02 A2978 RMK A01 T01610015  RH  037%=      5-min Rain = 0
KLO1 212331Z 13017KT 16/02 A2978 RMK A01 T01600015  RH  038%=      5-min Rain = 0
KLO1 212332Z 13017KT 16/02 A2978 RMK A01 T01600016  RH  038%=      5-min Rain = 0
KLO1 212333Z 14018KT 16/02 A2978 RMK A01 T01600016  RH  038%=      5-min Rain = 0
KLO1 212334Z 15017KT 16/02 A2978 RMK A01 T01590016  RH  038%=      5-min Rain = 0
KLO1 212335Z 14017KT 16/02 A2978 RMK A01 T01590015  RH  038%=      5-min Rain = 0
KLO1 212336Z 13015KT 16/02 A2978 RMK A01 T01580015  RH  038%=      5-min Rain = 0
KLO1 212337Z 13015KT 16/02 A2978 RMK A01 T01580015  RH  038%=      5-min Rain = 0
KLO1 212338Z 13015KT 16/02 A2978 RMK A01 T01580015  RH  038%=      5-min Rain = 0
KLO1 212339Z 13017KT 16/02 A2978 RMK A01 T01570015  RH  038%=      5-min Rain = 0
KLO1 212340Z 14018KT 16/02 A2978 RMK A01 T01570015  RH  038%=      5-min Rain = 0
KLO1 212341Z 13017KT 16/02 A2978 RMK A01 T01560015  RH  038%=      5-min Rain = 0
KLO1 212342Z 13016KT 16/02 A2978 RMK A01 T01560016  RH  039%=      5-min Rain = 0
KLO1 212343Z 13017KT 16/02 A2978 RMK A01 T01560015  RH  038%=      5-min Rain = 0
KLO1 212344Z 14016KT 16/02 A2978 RMK A01 T01560015  RH  039%=      5-min Rain = 0
KLO1 212345Z 14015KT 16/02 A2978 RMK A01 T01560015  RH  039%=      5-min Rain = 0
KLO1 212346Z 13014KT 16/02 A2978 RMK A01 T01560016  RH  039%=      5-min Rain = 0
KLO1 212347Z 13014KT 16/02 A2978 RMK A01 T01560016  RH  039%=      5-min Rain = 0
KLO1 212348Z 13016KT 16/02 A2979 RMK A01 T01560016  RH  039%=      5-min Rain = 0
KLO1 212349Z 13017G22KT 16/02 A2979 RMK A01 T01550015  RH  039%=      5-min Rain = 0
KLO1 212350Z 13018KT 15/02 A2979 RMK A01 T01540015  RH  039%=      5-min Rain = 0
KLO1 212351Z 13015KT 15/02 A2979 RMK A01 T01530015  RH  039%=      5-min Rain = 0
KLO1 212352Z 13017KT 15/02 A2979 RMK A01 T01530015  RH  039%=      5-min Rain = 0
KLO1 212353Z 13015KT 15/02 A2979 RMK A01 T01520015  RH  039%=      5-min Rain = 0
KLO1 212354Z 13016KT 15/02 A2979 RMK A01 T01520015  RH  039%=      5-min Rain = 0
KLO1 212355Z 13017KT 15/02 A2979 RMK A01 T01520015  RH  040%=      5-min Rain = 0
KLO1 212356Z 13017KT 15/02 A2979 RMK A01 T01520015  RH  040%=      5-min Rain = 0
KLO1 212357Z 14017KT 15/02 A2979 RMK A01 T01520016  RH  040%=      5-min Rain = 0
KLO1 212358Z 14017KT 15/02 A2979 RMK A01 T01510016  RH  040%=      5-min Rain = 0
KLO1 212359Z 14016KT 15/02 A2979 RMK A01 T01510016  RH  040%=      5-min Rain = 0
KLO1 220000Z 13015KT 15/02 A2979 RMK A01 T01500016  RH  040%=      5-min Rain = 0
KLO1 220001Z 14013KT 15/02 A2979 RMK A01 T01500016  RH  040%=      5-min Rain = 0
KLO1 220002Z 14015KT 15/02 A2979 RMK A01 T01500016  RH  040%=      5-min Rain = 0
KLO1 220003Z 14016KT 15/02 A2979 RMK A01 T01490016  RH  040%=      5-min Rain = 0
KLO1 220004Z 14015KT 15/02 A2979 RMK A01 T01490016  RH  040%=      5-min Rain = 0
KLO1 220005Z 14015KT 15/02 A2979 RMK A01 T01480015  RH  040%=      5-min Rain = 0
KLO1 220006Z 14014KT 15/02 A2979 RMK A01 T01480015  RH  041%=      5-min Rain = 0
KLO1 220007Z 14013KT 15/02 A2979 RMK A01 T01480016  RH  041%=      5-min Rain = 0
KLO1 220008Z 13012KT 15/02 A2979 RMK A01 T01470016  RH  041%=      5-min Rain = 0
KLO1 220009Z 13012KT 15/02 A2979 RMK A01 T01460016  RH  041%=      5-min Rain = 0
KLO1 220010Z 13013KT 15/02 A2979 RMK A01 T01460016  RH  041%=      5-min Rain = 0
KLO1 220011Z 13013KT 15/02 A2979 RMK A01 T01460016  RH  041%=      5-min Rain = 0
KLO1 220012Z 13015KT 15/02 A2979 RMK A01 T01450015  RH  041%=      5-min Rain = 0
KLO1 220013Z 13012KT 15/02 A2979 RMK A01 T01450015  RH  041%=      5-min Rain = 0
KLO1 220014Z 13012KT 15/02 A2979 RMK A01 T01450015  RH  041%=      5-min Rain = 0
KLO1 220015Z 14014KT 14/02 A2979 RMK A01 T01440015  RH  041%=      5-min Rain = 0
KLO1 220016Z 13012KT 14/02 A2979 RMK A01 T01440015  RH  042%=      5-min Rain = 0
KLO1 220017Z 14012KT 14/02 A2979 RMK A01 T01430015  RH  042%=      5-min Rain = 0
KLO1 220018Z 13012KT 14/02 A2979 RMK A01 T01430015  RH  042%=      5-min Rain = 0
KLO1 220019Z 14012KT 14/02 A2979 RMK A01 T01420015  RH  042%=      5-min Rain = 0
KLO1 220020Z 13012KT 14/02 A2979 RMK A01 T01420015  RH  042%=      5-min Rain = 0
KLO1 220021Z 14013KT 14/02 A298 RMK A01 T01410015  RH  042%=      5-min Rain = 0
KLO1 220022Z 14012KT 14/02 A298 RMK A01 T01410015  RH  042%=      5-min Rain = 0
KLO1 220023Z 14013KT 14/02 A298 RMK A01 T01400015  RH  043%=      5-min Rain = 0
KLO1 220024Z 14013KT 14/02 A298 RMK A01 T01400015  RH  043%=      5-min Rain = 0
KLO1 220025Z 14012KT 14/02 A298 RMK A01 T01400015  RH  043%=      5-min Rain = 0
KLO1 220026Z 14011KT 14/02 A298 RMK A01 T01390015  RH  043%=      5-min Rain = 0
KLO1 220027Z 14013KT 14/02 A298 RMK A01 T01370015  RH  043%=      5-min Rain = 0
KLO1 220028Z 14013KT 14/02 A298 RMK A01 T01370015  RH  043%=      5-min Rain = 0
KLO1 220029Z 14011KT 14/01 A298 RMK A01 T01370014  RH  043%=      5-min Rain = 0
KLO1 220030Z 14013KT 14/02 A298 RMK A01 T01370015  RH  043%=      5-min Rain = 0
KLO1 220031Z 13013KT 14/02 A298 RMK A01 T01370015  RH  043%=      5-min Rain = 0
KLO1 220032Z 13012KT 14/02 A298 RMK A01 T01370015  RH  043%=      5-min Rain = 0
KLO1 220033Z 13013KT 14/01 A2981 RMK A01 T01360014  RH  043%=      5-min Rain = 0
KLO1 220034Z 13011KT 14/01 A2981 RMK A01 T01360014  RH  044%=      5-min Rain = 0
KLO1 220035Z 13011KT 14/01 A2981 RMK A01 T01360014  RH  044%=      5-min Rain = 0
KLO1 220036Z 13010KT 14/01 A2981 RMK A01 T01350014  RH  044%=      5-min Rain = 0
KLO1 220037Z 13010KT 13/01 A2981 RMK A01 T01340014  RH  044%=      5-min Rain = 0
KLO1 220038Z 13010KT 13/01 A2981 RMK A01 T01330014  RH  044%=      5-min Rain = 0
KLO1 220039Z 12010KT 13/01 A2981 RMK A01 T01330014  RH  044%=      5-min Rain = 0
KLO1 220040Z 12008KT 13/01 A2981 RMK A01 T01320014  RH  044%=      5-min Rain = 0
KLO1 220041Z 13009KT 13/01 A2981 RMK A01 T01310013  RH  045%=      5-min Rain = 0
KLO1 220042Z 13008KT 13/01 A2981 RMK A01 T01300013  RH  045%=      5-min Rain = 0
KLO1 220043Z 13009KT 13/01 A2981 RMK A01 T01290013  RH  045%=      5-min Rain = 0
KLO1 220044Z 12009KT 13/01 A2981 RMK A01 T01280013  RH  045%=      5-min Rain = 0
KLO1 220045Z 12010KT 13/01 A2981 RMK A01 T01270013  RH  046%=      5-min Rain = 0
KLO1 220046Z 13012KT 13/01 A2981 RMK A01 T01270013  RH  046%=      5-min Rain = 0
KLO1 220047Z 13012KT 13/01 A2981 RMK A01 T01270013  RH  046%=      5-min Rain = 0
KLO1 220048Z 13012KT 13/01 A2981 RMK A01 T01270013  RH  046%=      5-min Rain = 0
KLO1 220049Z 13013KT 13/01 A2981 RMK A01 T01270014  RH  046%=      5-min Rain = 0
KLO1 220050Z 13013KT 13/01 A2981 RMK A01 T01270014  RH  046%=      5-min Rain = 0
KLO1 220051Z 13015KT 13/01 A2981 RMK A01 T01270014  RH  046%=      5-min Rain = 0
KLO1 220052Z 13014KT 13/01 A2981 RMK A01 T01280014  RH  046%=      5-min Rain = 0
KLO1 220053Z 13011KT 13/01 A2981 RMK A01 T01290014  RH  046%=      5-min Rain = 0
KLO1 220054Z 13011KT 13/01 A2981 RMK A01 T01270013  RH  046%=      5-min Rain = 0
KLO1 220055Z 12012KT 13/01 A2981 RMK A01 T01260013  RH  046%=      5-min Rain = 0
KLO1 220056Z 12013KT 13/01 A2981 RMK A01 T01250013  RH  046%=      5-min Rain = 0
KLO1 220057Z 12012KT 13/01 A2981 RMK A01 T01250013  RH  046%=      5-min Rain = 0
KLO1 220058Z 12013KT 13/01 A2981 RMK A01 T01250013  RH  046%=      5-min Rain = 0
KLO1 220059Z 13012KT 13/01 A2982 RMK A01 T01250013  RH  046%=      5-min Rain = 0
KLO1 220100Z 13012KT 13/01 A2982 RMK A01 T01250013  RH  046%=      5-min Rain = 0
KLO1 220101Z 13015KT 12/01 A2982 RMK A01 T01240013  RH  046%=      5-min Rain = 0
KLO1 220102Z 13014KT 12/01 A2982 RMK A01 T01240013  RH  046%=      5-min Rain = 0
KLO1 220103Z 13014KT 13/01 A2982 RMK A01 T01250013  RH  046%=      5-min Rain = 0
KLO1 220104Z 13016KT 13/01 A2982 RMK A01 T01250013  RH  046%=      5-min Rain = 0
KLO1 220105Z 13014KT 13/01 A2982 RMK A01 T01260013  RH  046%=      5-min Rain = 0
KLO1 220106Z 13015KT 13/01 A2982 RMK A01 T01260013  RH  046%=      5-min Rain = 0
KLO1 220107Z 13014KT 13/01 A2982 RMK A01 T01250013  RH  046%=      5-min Rain = 0
KLO1 220108Z 13013KT 13/01 A2982 RMK A01 T01250013  RH  046%=      5-min Rain = 0
KLO1 220109Z 12012KT 13/01 A2982 RMK A01 T01250012  RH  046%=      5-min Rain = 0
KLO1 220110Z 12012KT 12/01 A2982 RMK A01 T01240012  RH  046%=      5-min Rain = 0
KLO1 220111Z 12012KT 12/01 A2982 RMK A01 T01230012  RH  047%=      5-min Rain = 0
KLO1 220112Z 11011KT 12/01 A2982 RMK A01 T01220012  RH  047%=      5-min Rain = 0
KLO1 220113Z 12012KT 12/01 A2982 RMK A01 T01210011  RH  047%=      5-min Rain = 0
KLO1 220114Z 12011KT 12/01 A2982 RMK A01 T01210011  RH  047%=      5-min Rain = 0
KLO1 220115Z 12011KT 12/01 A2982 RMK A01 T01200010  RH  047%=      5-min Rain = 0
KLO1 220116Z 12012KT 12/01 A2982 RMK A01 T01180009  RH  047%=      5-min Rain = 0
KLO1 220117Z 11012KT 12/01 A2982 RMK A01 T01170008  RH  047%=      5-min Rain = 0
KLO1 220118Z 12012KT 12/01 A2982 RMK A01 T01160007  RH  047%=      5-min Rain = 0
KLO1 220119Z 12012KT 12/01 A2982 RMK A01 T01160007  RH  047%=      5-min Rain = 0
KLO1 220120Z 12013KT 12/01 A2982 RMK A01 T01150006  RH  047%=      5-min Rain = 0
KLO1 220121Z 12013KT 12/01 A2982 RMK A01 T01150007  RH  047%=      5-min Rain = 0
KLO1 220122Z 12013KT 12/01 A2982 RMK A01 T01150006  RH  047%=      5-min Rain = 0
KLO1 220123Z 12012KT 12/01 A2982 RMK A01 T01150006  RH  047%=      5-min Rain = 0
KLO1 220124Z 12013KT 11/01 A2982 RMK A01 T01140006  RH  047%=      5-min Rain = 0
KLO1 220125Z 13013KT 11/01 A2982 RMK A01 T01140005  RH  047%=      5-min Rain = 0
KLO1 220126Z 12013KT 11/01 A2982 RMK A01 T01140005  RH  047%=      5-min Rain = 0
KLO1 220127Z 12013KT 11/01 A2982 RMK A01 T01140005  RH  047%=      5-min Rain = 0
KLO1 220128Z 12013KT 11/01 A2982 RMK A01 T01130005  RH  047%=      5-min Rain = 0
KLO1 220129Z 12013KT 11/01 A2982 RMK A01 T01130005  RH  047%=      5-min Rain = 0
KLO1 220130Z 12013KT 11/00 A2982 RMK A01 T01130004  RH  047%=      5-min Rain = 0
KLO1 220131Z 12015KT 11/00 A2982 RMK A01 T01130004  RH  047%=      5-min Rain = 0
KLO1 220132Z 13015KT 11/00 A2982 RMK A01 T01130004  RH  047%=      5-min Rain = 0
KLO1 220133Z 12015KT 11/00 A2982 RMK A01 T01120003  RH  047%=      5-min Rain = 0
KLO1 220134Z 12014KT 11/00 A2982 RMK A01 T01120003  RH  047%=      5-min Rain = 0
KLO1 220135Z 12013KT 11/00 A2982 RMK A01 T01120003  RH  047%=      5-min Rain = 0
KLO1 220136Z 12011KT 11/00 A2982 RMK A01 T01110002  RH  047%=      5-min Rain = 0
KLO1 220137Z 12013KT 11/00 A2982 RMK A01 T01100002  RH  047%=      5-min Rain = 0
KLO1 220138Z 12013KT 11/00 A2982 RMK A01 T01100002  RH  047%=      5-min Rain = 0
KLO1 220139Z 12014G19KT 11/00 A2982 RMK A01 T01100001  RH  047%=      5-min Rain = 0
KLO1 220140Z 12012KT 11/00 A2982 RMK A01 T01090001  RH  047%=      5-min Rain = 0
KLO1 220141Z 12011KT 11/00 A2982 RMK A01 T01090001  RH  047%=      5-min Rain = 0
KLO1 220142Z 11011KT 11/00 A2982 RMK A01 T01080001  RH  048%=      5-min Rain = 0
KLO1 220143Z 11010KT 11/00 A2982 RMK A01 T01080001  RH  048%=      5-min Rain = 0
KLO1 220144Z 11012KT 11/00 A2983 RMK A01 T01070000  RH  048%=      5-min Rain = 0
KLO1 220145Z 11011KT 11/00 A2983 RMK A01 T01070001  RH  048%=      5-min Rain = 0
KLO1 220146Z 11010KT 11/00 A2983 RMK A01 T01060000  RH  048%=      5-min Rain = 0
KLO1 220147Z 11010KT 11/00 A2983 RMK A01 T01060000  RH  048%=      5-min Rain = 0
KLO1 220148Z 10010KT 11/00 A2983 RMK A01 T010500-0  RH  048%=      5-min Rain = 0
KLO1 220149Z 10009KT 10/00 A2983 RMK A01 T010400-0  RH  048%=      5-min Rain = 0
KLO1 220150Z 10008KT 10/00 A2983 RMK A01 T010300-0  RH  049%=      5-min Rain = 0
KLO1 220151Z 09008KT 10/M00 A2983 RMK A01 T01021001  RH  049%=      5-min Rain = 0
KLO1 220152Z 08007KT 10/M00 A2983 RMK A01 T01011001  RH  049%=      5-min Rain = 0
KLO1 220153Z 08007KT 10/M00 A2983 RMK A01 T00991001  RH  050%=      5-min Rain = 0
KLO1 220154Z 07006KT 10/M00 A2983 RMK A01 T00981001  RH  050%=      5-min Rain = 0
KLO1 220155Z 08006KT 10/M00 A2983 RMK A01 T00971002  RH  050%=      5-min Rain = 0
KLO1 220156Z 07006KT 10/M00 A2983 RMK A01 T00951002  RH  051%=      5-min Rain = 0
KLO1 220157Z 07007KT 09/M00 A2983 RMK A01 T00941002  RH  051%=      5-min Rain = 0
KLO1 220158Z 08007KT 09/M00 A2983 RMK A01 T00941001  RH  051%=      5-min Rain = 0
KLO1 220159Z 08007KT 09/M00 A2983 RMK A01 T00931002  RH  051%=      5-min Rain = 0
KLO1 220200Z 07007KT 09/M00 A2983 RMK A01 T00931002  RH  052%=      5-min Rain = 0
KLO1 220201Z 07008KT 09/M00 A2983 RMK A01 T00921002  RH  052%=      5-min Rain = 0
KLO1 220202Z 07006KT 09/M00 A2983 RMK A01 T00931001  RH  052%=      5-min Rain = 0
KLO1 220203Z 07006KT 09/M00 A2983 RMK A01 T00921001  RH  052%=      5-min Rain = 0
KLO1 220204Z 07006KT 09/M00 A2983 RMK A01 T00921001  RH  052%=      5-min Rain = 0
KLO1 220205Z 07006KT 09/M00 A2983 RMK A01 T00911002  RH  052%=      5-min Rain = 0
KLO1 220206Z 07006KT 09/M00 A2983 RMK A01 T00891003  RH  053%=      5-min Rain = 0
KLO1 220207Z 07006KT 09/M00 A2983 RMK A01 T00871003  RH  053%=      5-min Rain = 0
KLO1 220208Z 08006KT 09/M00 A2983 RMK A01 T00861003  RH  053%=      5-min Rain = 0
KLO1 220209Z 09007KT 09/M00 A2983 RMK A01 T00861004  RH  053%=      5-min Rain = 0
KLO1 220210Z 09008KT 09/M00 A2983 RMK A01 T00851004  RH  053%=      5-min Rain = 0
KLO1 220211Z 09008KT 09/M01 A2983 RMK A01 T00851005  RH  053%=      5-min Rain = 0
KLO1 220212Z 09009KT 09/M01 A2983 RMK A01 T00851005  RH  053%=      5-min Rain = 0
KLO1 220213Z 09009KT 09/M01 A2983 RMK A01 T00851005  RH  053%=      5-min Rain = 0
KLO1 220214Z 10009KT 09/M01 A2983 RMK A01 T00851006  RH  053%=      5-min Rain = 0
KLO1 220215Z 10009KT 09/M01 A2983 RMK A01 T00851007  RH  053%=      5-min Rain = 0
KLO1 220216Z 10009KT 09/M01 A2983 RMK A01 T00851007  RH  052%=      5-min Rain = 0
KLO1 220217Z 10009KT 09/M01 A2983 RMK A01 T00851008  RH  052%=      5-min Rain = 0
KLO1 220218Z 11009KT 09/M01 A2983 RMK A01 T00851008  RH  052%=      5-min Rain = 0
KLO1 220219Z 11009KT 09/M01 A2983 RMK A01 T00851009  RH  052%=      5-min Rain = 0
KLO1 220220Z 11009KT 09/M01 A2983 RMK A01 T00851009  RH  052%=      5-min Rain = 0
KLO1 220221Z 11009KT 09/M01 A2983 RMK A01 T00851009  RH  052%=      5-min Rain = 0
KLO1 220222Z 11009KT 09/M01 A2983 RMK A01 T00851009  RH  051%=      5-min Rain = 0
KLO1 220223Z 11009KT 09/M01 A2983 RMK A01 T00851009  RH  051%=      5-min Rain = 0
KLO1 220224Z 12009KT 09/M01 A2983 RMK A01 T00851010  RH  051%=      5-min Rain = 0
KLO1 220225Z 12009KT 09/M01 A2983 RMK A01 T00851010  RH  051%=      5-min Rain = 0
KLO1 220226Z 11009KT 08/M01 A2983 RMK A01 T00841011  RH  051%=      5-min Rain = 0
KLO1 220227Z 11009KT 08/M01 A2983 RMK A01 T00841011  RH  051%=      5-min Rain = 0
KLO1 220228Z 11009KT 08/M01 A2983 RMK A01 T00841011  RH  051%=      5-min Rain = 0
KLO1 220229Z 11009KT 08/M01 A2983 RMK A01 T00841011  RH  051%=      5-min Rain = 0
KLO1 220230Z 11008KT 08/M01 A2983 RMK A01 T00831012  RH  051%=      5-min Rain = 0
KLO1 220231Z 11008KT 08/M01 A2983 RMK A01 T00811013  RH  051%=      5-min Rain = 0
KLO1 220232Z 12009KT 08/M01 A2983 RMK A01 T00811013  RH  052%=      5-min Rain = 0
KLO1 220233Z 12009KT 08/M01 A2984 RMK A01 T00801013  RH  052%=      5-min Rain = 0
KLO1 220234Z 12009KT 08/M01 A2984 RMK A01 T00791014  RH  052%=      5-min Rain = 0
KLO1 220235Z 12008KT 08/M01 A2984 RMK A01 T00781014  RH  052%=      5-min Rain = 0
KLO1 220236Z 13009KT 08/M01 A2984 RMK A01 T00781014  RH  052%=      5-min Rain = 0
KLO1 220237Z 13009KT 08/M01 A2984 RMK A01 T00771014  RH  052%=      5-min Rain = 0
KLO1 220238Z 13009KT 08/M01 A2984 RMK A01 T00761014  RH  053%=      5-min Rain = 0
KLO1 220239Z 13008KT 08/M01 A2984 RMK A01 T00761014  RH  053%=      5-min Rain = 0
KLO1 220240Z 13009KT 08/M01 A2983 RMK A01 T00761014  RH  053%=      5-min Rain = 0
KLO1 220241Z 13010KT 08/M01 A2984 RMK A01 T00761014  RH  053%=      5-min Rain = 0
KLO1 220242Z 13009KT 08/M01 A2984 RMK A01 T00761014  RH  053%=      5-min Rain = 0
KLO1 220243Z 13009KT 08/M02 A2984 RMK A01 T00761015  RH  053%=      5-min Rain = 0
KLO1 220244Z 13009KT 08/M01 A2984 RMK A01 T00761014  RH  053%=      5-min Rain = 0
KLO1 220245Z 13009KT 08/M01 A2984 RMK A01 T00761014  RH  053%=      5-min Rain = 0
KLO1 220246Z 13008KT 08/M01 A2984 RMK A01 T00761014  RH  053%=      5-min Rain = 0
KLO1 220247Z 13008KT 08/M02 A2984 RMK A01 T00761015  RH  053%=      5-min Rain = 0
KLO1 220248Z 13009KT 08/M02 A2984 RMK A01 T00761015  RH  053%=      5-min Rain = 0
KLO1 220249Z 13008KT 08/M02 A2984 RMK A01 T00761015  RH  052%=      5-min Rain = 0
KLO1 220250Z 13009KT 08/M02 A2984 RMK A01 T00761015  RH  052%=      5-min Rain = 0
KLO1 220251Z 12008KT 08/M02 A2984 RMK A01 T00771015  RH  052%=      5-min Rain = 0
KLO1 220252Z 13010KT 08/M02 A2984 RMK A01 T00771016  RH  052%=      5-min Rain = 0
KLO1 220253Z 12010KT 08/M02 A2984 RMK A01 T00791016  RH  051%=      5-min Rain = 0
KLO1 220254Z 12009KT 08/M02 A2984 RMK A01 T00801016  RH  051%=      5-min Rain = 0
KLO1 220255Z 12008KT 08/M02 A2984 RMK A01 T00801017  RH  050%=      5-min Rain = 0
KLO1 220256Z 12008KT 08/M02 A2984 RMK A01 T00801017  RH  050%=      5-min Rain = 0
KLO1 220257Z 12008KT 08/M02 A2985 RMK A01 T00801017  RH  050%=      5-min Rain = 0
KLO1 220258Z 12009KT 08/M02 A2985 RMK A01 T00801017  RH  050%=      5-min Rain = 0
KLO1 220259Z 12009KT 08/M02 A2985 RMK A01 T00801018  RH  050%=      5-min Rain = 0
KLO1 220300Z 11008KT 08/M02 A2985 RMK A01 T00801018  RH  050%=      5-min Rain = 0
KLO1 220301Z 12009KT 08/M02 A2985 RMK A01 T00791018  RH  050%=      5-min Rain = 0
KLO1 220302Z 12008KT 08/M02 A2985 RMK A01 T00791018  RH  050%=      5-min Rain = 0
KLO1 220303Z 12010KT 08/M02 A2985 RMK A01 T00801018  RH  050%=      5-min Rain = 0
KLO1 220304Z 12010KT 08/M02 A2985 RMK A01 T00801018  RH  050%=      5-min Rain = 0
KLO1 220305Z 12010KT 08/M02 A2985 RMK A01 T00801018  RH  050%=      5-min Rain = 0
KLO1 220306Z 12009KT 08/M02 A2985 RMK A01 T00801018  RH  050%=      5-min Rain = 0
KLO1 220307Z 12011KT 08/M02 A2985 RMK A01 T00801018  RH  050%=      5-min Rain = 0
KLO1 220308Z 12010KT 08/M02 A2985 RMK A01 T00811017  RH  050%=      5-min Rain = 0
KLO1 220309Z 12010KT 08/M02 A2985 RMK A01 T00811017  RH  050%=      5-min Rain = 0
KLO1 220310Z 12008KT 08/M02 A2985 RMK A01 T00811017  RH  050%=      5-min Rain = 0
KLO1 220311Z 12009KT 08/M02 A2985 RMK A01 T00801018  RH  050%=      5-min Rain = 0
KLO1 220312Z 12009KT 08/M02 A2986 RMK A01 T00801017  RH  050%=      5-min Rain = 0
KLO1 220313Z 12009KT 08/M02 A2986 RMK A01 T00801017  RH  051%=      5-min Rain = 0
KLO1 220314Z 12008KT 08/M02 A2986 RMK A01 T00791017  RH  051%=      5-min Rain = 0
KLO1 220315Z 12008KT 08/M02 A2986 RMK A01 T00791017  RH  051%=      5-min Rain = 0
KLO1 220316Z 12009KT 08/M02 A2986 RMK A01 T00791016  RH  051%=      5-min Rain = 0
KLO1 220317Z 12008KT 08/M02 A2986 RMK A01 T00791017  RH  051%=      5-min Rain = 0
KLO1 220318Z 12008KT 08/M02 A2986 RMK A01 T00781016  RH  051%=      5-min Rain = 0
KLO1 220319Z 11009KT 08/M02 A2986 RMK A01 T00781016  RH  051%=      5-min Rain = 0
KLO1 220320Z 11008KT 08/M02 A2986 RMK A01 T00781016  RH  052%=      5-min Rain = 0
KLO1 220321Z 11008KT 08/M02 A2986 RMK A01 T00781016  RH  052%=      5-min Rain = 0
KLO1 220322Z 11009KT 08/M02 A2986 RMK A01 T00771016  RH  052%=      5-min Rain = 0
KLO1 220323Z 11008KT 08/M02 A2986 RMK A01 T00771015  RH  052%=      5-min Rain = 0
KLO1 220324Z 11009KT 08/M02 A2986 RMK A01 T00771015  RH  052%=      5-min Rain = 0
KLO1 220325Z 11008KT 08/M02 A2986 RMK A01 T00761015  RH  052%=      5-min Rain = 0
KLO1 220326Z 11008KT 08/M01 A2986 RMK A01 T00761014  RH  053%=      5-min Rain = 0
KLO1 220327Z 11007KT 08/M01 A2986 RMK A01 T00761014  RH  053%=      5-min Rain = 0
KLO1 220328Z 11007KT 08/M01 A2986 RMK A01 T00761014  RH  053%=      5-min Rain = 0
KLO1 220329Z 11007KT 08/M01 A2986 RMK A01 T00761014  RH  053%=      5-min Rain = 0
KLO1 220330Z 11008KT 08/M01 A2986 RMK A01 T00751014  RH  053%=      5-min Rain = 0
KLO1 220331Z 11008KT 07/M01 A2986 RMK A01 T00741014  RH  054%=      5-min Rain = 0
KLO1 220332Z 11009KT 07/M01 A2986 RMK A01 T00741013  RH  054%=      5-min Rain = 0
KLO1 220333Z 11008KT 07/M01 A2986 RMK A01 T00741013  RH  054%=      5-min Rain = 0
KLO1 220334Z 11009KT 07/M01 A2987 RMK A01 T00741013  RH  054%=      5-min Rain = 0
KLO1 220335Z 11009KT 07/M01 A2987 RMK A01 T00741012  RH  054%=      5-min Rain = 0
KLO1 220336Z 11008KT 08/M01 A2987 RMK A01 T00751012  RH  054%=      5-min Rain = 0
KLO1 220337Z 11008KT 07/M01 A2987 RMK A01 T00741012  RH  054%=      5-min Rain = 0
KLO1 220338Z 11008KT 07/M01 A2987 RMK A01 T00741011  RH  055%=      5-min Rain = 0
KLO1 220339Z 12008KT 07/M01 A2987 RMK A01 T00741011  RH  055%=      5-min Rain = 0
KLO1 220340Z 12008KT 07/M01 A2987 RMK A01 T00741011  RH  055%=      5-min Rain = 0
KLO1 220341Z 12008KT 07/M01 A2987 RMK A01 T00731011  RH  055%=      5-min Rain = 0
KLO1 220342Z 12008KT 07/M01 A2987 RMK A01 T00731010  RH  055%=      5-min Rain = 0
KLO1 220343Z 12008KT 07/M01 A2987 RMK A01 T00731010  RH  056%=      5-min Rain = 0
KLO1 220344Z 12008KT 07/M01 A2987 RMK A01 T00731010  RH  056%=      5-min Rain = 0
KLO1 220345Z 12008KT 07/M01 A2987 RMK A01 T00731009  RH  056%=      5-min Rain = 0
KLO1 220346Z 12008KT 07/M01 A2987 RMK A01 T00721010  RH  056%=      5-min Rain = 0
KLO1 220347Z 12008KT 07/M01 A2987 RMK A01 T00721009  RH  056%=      5-min Rain = 0
KLO1 220348Z 12008KT 07/M01 A2987 RMK A01 T00721009  RH  056%=      5-min Rain = 0
KLO1 220349Z 12008KT 07/M01 A2987 RMK A01 T00721009  RH  057%=      5-min Rain = 0
KLO1 220350Z 11008KT 07/M01 A2987 RMK A01 T00711009  RH  057%=      5-min Rain = 0
KLO1 220351Z 11008KT 07/M01 A2987 RMK A01 T00701009  RH  057%=      5-min Rain = 0
KLO1 220352Z 11008KT 07/M01 A2987 RMK A01 T00701009  RH  057%=      5-min Rain = 0
KLO1 220353Z 11007KT 07/M01 A2987 RMK A01 T00701008  RH  058%=      5-min Rain = 0
KLO1 220354Z 12007KT 07/M01 A2987 RMK A01 T00701007  RH  058%=      5-min Rain = 0
KLO1 220355Z 12007KT 07/M01 A2987 RMK A01 T00701007  RH  058%=      5-min Rain = 0
KLO1 220356Z 12007KT 07/M01 A2987 RMK A01 T00691008  RH  058%=      5-min Rain = 0
KLO1 220357Z 11007KT 07/M01 A2987 RMK A01 T00691008  RH  058%=      5-min Rain = 0
KLO1 220358Z 11007KT 07/M01 A2987 RMK A01 T00681007  RH  059%=      5-min Rain = 0
KLO1 220359Z 11007KT 07/M01 A2987 RMK A01 T00681007  RH  059%=      5-min Rain = 0
KLO1 220400Z 11007KT 07/M01 A2987 RMK A01 T00671007  RH  059%=      5-min Rain = 0
KLO1 220401Z 11007KT 07/M01 A2987 RMK A01 T00671007  RH  059%=      5-min Rain = 0
KLO1 220402Z 11007KT 07/M01 A2987 RMK A01 T00661007  RH  059%=      5-min Rain = 0
KLO1 220403Z 11008KT 07/M01 A2987 RMK A01 T00661007  RH  060%=      5-min Rain = 0
KLO1 220404Z 11008KT 07/M01 A2987 RMK A01 T00661006  RH  060%=      5-min Rain = 0
KLO1 220405Z 11008KT 07/M01 A2987 RMK A01 T00661005  RH  060%=      5-min Rain = 0
KLO1 220406Z 11008KT 07/M01 A2986 RMK A01 T00661005  RH  060%=      5-min Rain = 0
KLO1 220407Z 11008KT 07/M01 A2986 RMK A01 T00661005  RH  060%=      5-min Rain = 0
KLO1 220408Z 11009KT 07/M01 A2986 RMK A01 T00651005  RH  061%=      5-min Rain = 0
KLO1 220409Z 11009KT 07/M00 A2986 RMK A01 T00651004  RH  061%=      5-min Rain = 0
KLO1 220410Z 12009KT 07/M00 A2986 RMK A01 T00661004  RH  061%=      5-min Rain = 0
KLO1 220411Z 12009KT 07/M00 A2986 RMK A01 T00661004  RH  061%=      5-min Rain = 0
KLO1 220412Z 12009KT 07/M00 A2986 RMK A01 T00661003  RH  061%=      5-min Rain = 0
KLO1 220413Z 12009KT 07/M00 A2986 RMK A01 T00661002  RH  062%=      5-min Rain = 0
KLO1 220414Z 12009KT 07/M00 A2986 RMK A01 T00661002  RH  062%=      5-min Rain = 0
KLO1 220415Z 12009KT 07/M00 A2986 RMK A01 T00651003  RH  062%=      5-min Rain = 0
KLO1 220416Z 12008KT 07/M00 A2986 RMK A01 T00651002  RH  062%=      5-min Rain = 0
KLO1 220417Z 12008KT 07/M00 A2986 RMK A01 T00651001  RH  063%=      5-min Rain = 0
KLO1 220418Z 12010KT 06/M00 A2986 RMK A01 T00641001  RH  063%=      5-min Rain = 0
KLO1 220419Z 12009KT 07/00 A2986 RMK A01 T00650001  RH  063%=      5-min Rain = 0
KLO1 220420Z 11007KT 07/00 A2987 RMK A01 T00660001  RH  063%=      5-min Rain = 0
KLO1 220421Z 11007KT 07/00 A2987 RMK A01 T00660001  RH  063%=      5-min Rain = 0
KLO1 220422Z 11007KT 07/00 A2987 RMK A01 T00650001  RH  064%=      5-min Rain = 0
KLO1 220423Z 11007KT 07/00 A2987 RMK A01 T00650002  RH  064%=      5-min Rain = 0
KLO1 220424Z 11006KT 06/00 A2987 RMK A01 T00640002  RH  064%=      5-min Rain = 0
KLO1 220425Z 10005KT 06/00 A2987 RMK A01 T00640002  RH  064%=      5-min Rain = 0
KLO1 220426Z 10006KT 06/00 A2987 RMK A01 T00630002  RH  065%=      5-min Rain = 0
KLO1 220427Z 09006KT 06/00 A2987 RMK A01 T00630002  RH  065%=      5-min Rain = 0
KLO1 220428Z 07005KT 06/00 A2987 RMK A01 T00630002  RH  065%=      5-min Rain = 0
KLO1 220429Z 05005KT 06/M00 A2987 RMK A01 T00601002  RH  064%=      5-min Rain = 0
KLO1 220430Z 05006KT 06/M01 A2987 RMK A01 T00561008  RH  063%=      5-min Rain = 0
KLO1 220431Z 06007KT 05/M01 A2987 RMK A01 T00511012  RH  064%=      5-min Rain = 0
KLO1 220432Z 06007KT 05/M01 A2987 RMK A01 T00491010  RH  066%=      5-min Rain = 0
KLO1 220433Z 06007KT 05/M01 A2987 RMK A01 T00481009  RH  067%=      5-min Rain = 0
KLO1 220434Z 07007KT 05/M01 A2987 RMK A01 T00481008  RH  067%=      5-min Rain = 0
KLO1 220435Z 07007KT 05/M01 A2988 RMK A01 T00481008  RH  067%=      5-min Rain = 0
KLO1 220436Z 08007KT 05/M01 A2988 RMK A01 T00481007  RH  068%=      5-min Rain = 0
KLO1 220437Z 08007KT 05/M01 A2988 RMK A01 T00491005  RH  068%=      5-min Rain = 0
KLO1 220438Z 08007KT 05/M00 A2988 RMK A01 T00501004  RH  068%=      5-min Rain = 0
KLO1 220439Z 08007KT 05/M00 A2988 RMK A01 T00501004  RH  068%=      5-min Rain = 0
KLO1 220440Z 09008KT 05/M00 A2988 RMK A01 T00501003  RH  068%=      5-min Rain = 0
KLO1 220441Z 09008KT 05/M00 A2988 RMK A01 T00501003  RH  069%=      5-min Rain = 0
KLO1 220442Z 09008KT 05/M00 A2987 RMK A01 T00511002  RH  069%=      5-min Rain = 0
KLO1 220443Z 10008KT 05/M00 A2987 RMK A01 T00511001  RH  069%=      5-min Rain = 0
KLO1 220444Z 10009KT 05/M00 A2987 RMK A01 T00521001  RH  069%=      5-min Rain = 0
KLO1 220445Z 10008KT 05/M00 A2987 RMK A01 T00521001  RH  069%=      5-min Rain = 0
KLO1 220446Z 10008KT 05/00 A2987 RMK A01 T005200-0  RH  069%=      5-min Rain = 0
KLO1 220447Z 10009KT 05/00 A2987 RMK A01 T00530001  RH  069%=      5-min Rain = 0
KLO1 220448Z 11010KT 05/00 A2987 RMK A01 T00530001  RH  069%=      5-min Rain = 0
KLO1 220449Z 11010KT 05/00 A2987 RMK A01 T00540003  RH  069%=      5-min Rain = 0
KLO1 220450Z 11009KT 06/00 A2987 RMK A01 T00560003  RH  069%=      5-min Rain = 0
KLO1 220451Z 11009KT 06/00 A2987 RMK A01 T00560003  RH  069%=      5-min Rain = 0
KLO1 220452Z 11009KT 06/00 A2987 RMK A01 T00560003  RH  069%=      5-min Rain = 0
KLO1 220453Z 11009KT 06/00 A2987 RMK A01 T00560003  RH  069%=      5-min Rain = 0
KLO1 220454Z 11008KT 06/00 A2987 RMK A01 T00560003  RH  069%=      5-min Rain = 0
KLO1 220455Z 11008KT 06/00 A2987 RMK A01 T00560004  RH  069%=      5-min Rain = 0
KLO1 220456Z 10008KT 06/00 A2987 RMK A01 T00550003  RH  069%=      5-min Rain = 0
KLO1 220457Z 10009KT 06/00 A2987 RMK A01 T00550003  RH  069%=      5-min Rain = 0
KLO1 220458Z 10008KT 06/00 A2987 RMK A01 T00550004  RH  070%=      5-min Rain = 0
KLO1 220459Z 10008KT 06/00 A2987 RMK A01 T00550004  RH  070%=      5-min Rain = 0
KLO1 220500Z 10007KT 05/00 A2987 RMK A01 T00540004  RH  070%=      5-min Rain = 0
KLO1 220501Z 10007KT 05/00 A2987 RMK A01 T00540004  RH  070%=      5-min Rain = 0
KLO1 220502Z 09007KT 05/00 A2987 RMK A01 T00540004  RH  070%=      5-min Rain = 0
KLO1 220503Z 09007KT 05/00 A2987 RMK A01 T00530003  RH  070%=      5-min Rain = 0
KLO1 220504Z 09007KT 05/00 A2987 RMK A01 T00520003  RH  071%=      5-min Rain = 0
KLO1 220505Z 09007KT 05/00 A2987 RMK A01 T00510003  RH  071%=      5-min Rain = 0
KLO1 220506Z 09007KT 05/00 A2987 RMK A01 T00500003  RH  071%=      5-min Rain = 0
KLO1 220507Z 09007KT 05/00 A2987 RMK A01 T00500003  RH  072%=      5-min Rain = 0
KLO1 220508Z 09006KT 05/00 A2987 RMK A01 T00500003  RH  072%=      5-min Rain = 0
KLO1 220509Z 09007KT 05/00 A2987 RMK A01 T00490003  RH  072%=      5-min Rain = 0
KLO1 220510Z 09006KT 05/00 A2987 RMK A01 T00480002  RH  072%=      5-min Rain = 0
KLO1 220511Z 09006KT 05/00 A2987 RMK A01 T00470002  RH  072%=      5-min Rain = 0
KLO1 220512Z 10007KT 05/00 A2987 RMK A01 T00460001  RH  073%=      5-min Rain = 0
KLO1 220513Z 10007KT 05/00 A2987 RMK A01 T00460002  RH  073%=      5-min Rain = 0
KLO1 220514Z 10008KT 05/00 A2987 RMK A01 T00460002  RH  073%=      5-min Rain = 0
KLO1 220515Z 10008KT 05/00 A2987 RMK A01 T00460003  RH  074%=      5-min Rain = 0
KLO1 220516Z 10008KT 05/00 A2987 RMK A01 T00460003  RH  074%=      5-min Rain = 0
KLO1 220517Z 11008KT 05/00 A2987 RMK A01 T00470004  RH  074%=      5-min Rain = 0
KLO1 220518Z 11008KT 05/00 A2986 RMK A01 T00470004  RH  074%=      5-min Rain = 0
KLO1 220519Z 11008KT 05/00 A2987 RMK A01 T00470004  RH  074%=      5-min Rain = 0
KLO1 220520Z 11008KT 05/01 A2986 RMK A01 T00480005  RH  074%=      5-min Rain = 0
KLO1 220521Z 11008KT 05/01 A2986 RMK A01 T00480005  RH  074%=      5-min Rain = 0
KLO1 220522Z 11009KT 05/01 A2986 RMK A01 T00480005  RH  073%=      5-min Rain = 0
KLO1 220523Z 10008KT 05/01 A2986 RMK A01 T00480005  RH  074%=      5-min Rain = 0
KLO1 220524Z 10009KT 05/01 A2986 RMK A01 T00480005  RH  074%=      5-min Rain = 0
KLO1 220525Z 10009KT 05/01 A2986 RMK A01 T00480005  RH  074%=      5-min Rain = 0
KLO1 220526Z 10009KT 05/01 A2986 RMK A01 T00480006  RH  074%=      5-min Rain = 0
KLO1 220527Z 10009KT 05/01 A2986 RMK A01 T00480006  RH  074%=      5-min Rain = 0
KLO1 220528Z 10009KT 05/01 A2986 RMK A01 T00480006  RH  074%=      5-min Rain = 0
KLO1 220529Z 10009KT 05/01 A2986 RMK A01 T00480006  RH  074%=      5-min Rain = 0
KLO1 220530Z 10007KT 05/01 A2986 RMK A01 T00480006  RH  074%=      5-min Rain = 0
KLO1 220531Z 10008KT 05/01 A2986 RMK A01 T00480006  RH  074%=      5-min Rain = 0
KLO1 220532Z 10008KT 05/01 A2986 RMK A01 T00480007  RH  074%=      5-min Rain = 0
KLO1 220533Z 10009KT 05/01 A2986 RMK A01 T00480007  RH  074%=      5-min Rain = 0
KLO1 220534Z 10008KT 05/01 A2986 RMK A01 T00480007  RH  075%=      5-min Rain = 0
KLO1 220535Z 10008KT 05/01 A2986 RMK A01 T00480007  RH  075%=      5-min Rain = 0
KLO1 220536Z 10008KT 05/01 A2986 RMK A01 T00480007  RH  074%=      5-min Rain = 0
KLO1 220537Z 10008KT 05/01 A2986 RMK A01 T00480006  RH  075%=      5-min Rain = 0
KLO1 220538Z 10008KT 05/01 A2986 RMK A01 T00470006  RH  075%=      5-min Rain = 0
KLO1 220539Z 10007KT 05/01 A2986 RMK A01 T00470007  RH  075%=      5-min Rain = 0
KLO1 220540Z 10007KT 05/01 A2986 RMK A01 T00470006  RH  075%=      5-min Rain = 0
KLO1 220541Z 10008KT 05/01 A2986 RMK A01 T00460006  RH  075%=      5-min Rain = 0
KLO1 220542Z 10007KT 05/01 A2986 RMK A01 T00460006  RH  075%=      5-min Rain = 0
KLO1 220543Z 09007KT 05/01 A2986 RMK A01 T00460007  RH  076%=      5-min Rain = 0
KLO1 220544Z 09007KT 05/01 A2986 RMK A01 T00460007  RH  076%=      5-min Rain = 0
KLO1 220545Z 09007KT 05/01 A2986 RMK A01 T00460006  RH  075%=      5-min Rain = 0
KLO1 220546Z 09007KT 05/01 A2986 RMK A01 T00460007  RH  076%=      5-min Rain = 0
KLO1 220547Z 09007KT 05/01 A2986 RMK A01 T00460007  RH  076%=      5-min Rain = 0
KLO1 220548Z 09006KT 05/01 A2987 RMK A01 T00460007  RH  076%=      5-min Rain = 0
KLO1 220549Z 09006KT 05/01 A2987 RMK A01 T00450006  RH  076%=      5-min Rain = 0
KLO1 220550Z 09007KT 05/01 A2987 RMK A01 T00450006  RH  076%=      5-min Rain = 0
KLO1 220551Z 09007KT 05/01 A2987 RMK A01 T00450006  RH  076%=      5-min Rain = 0
KLO1 220552Z 09007KT 05/01 A2987 RMK A01 T00450007  RH  076%=      5-min Rain = 0
KLO1 220553Z 10007KT 05/01 A2987 RMK A01 T00450007  RH  076%=      5-min Rain = 0
KLO1 220554Z 10006KT 05/01 A2987 RMK A01 T00450006  RH  076%=      5-min Rain = 0
KLO1 220555Z 10006KT 04/01 A2986 RMK A01 T00440006  RH  076%=      5-min Rain = 0
KLO1 220556Z 10006KT 04/01 A2986 RMK A01 T00430005  RH  076%=      5-min Rain = 0
KLO1 220557Z 10006KT 04/01 A2986 RMK A01 T00430005  RH  076%=      5-min Rain = 0
KLO1 220558Z 11006KT 04/01 A2986 RMK A01 T00420005  RH  077%=      5-min Rain = 0
KLO1 220559Z 10006KT 04/01 A2986 RMK A01 T00420005  RH  077%=      5-min Rain = 0

Page generated in 0.0705 seconds.